Time,TemperatureF,DewpointF,PressureIn,WindDirection,WindDirectionDegrees,WindSpeedMPH,WindSpeedGustMPH,Humidity,HourlyPrecipIn,Conditions,Clouds,dailyrainin,SoftwareType,DateUTC
2013-03-10 00:00:00,64.2,45.2,30.15,NE,45,0.0,0.0,50,0.00,,---,0.00,VWS V14.01,2013-03-09 22:00:00,
2013-03-10 00:01:00,64.2,45.2,30.15,ENE,68,0.0,0.0,50,0.00,,---,0.00,VWS V14.01,2013-03-09 22:01:00,
2013-03-10 00:02:00,64.2,45.2,30.15,ENE,68,0.0,0.0,50,0.00,,---,0.00,VWS V14.01,2013-03-09 22:02:00,
2013-03-10 00:03:00,64.2,45.2,30.15,NNW,338,0.0,0.0,50,0.00,,---,0.00,VWS V14.01,2013-03-09 22:03:00,
2013-03-10 00:04:00,64.2,45.2,30.15,ENE,68,0.0,0.0,50,0.00,,---,0.00,VWS V14.01,2013-03-09 22:04:00,
2013-03-10 00:05:00,64.2,45.2,30.15,ENE,68,0.0,0.0,50,0.00,,---,0.00,VWS V14.01,2013-03-09 22:05:00,
2013-03-10 00:06:00,64.2,45.2,30.15,ESE,112,0.0,0.0,50,0.00,,---,0.00,VWS V14.01,2013-03-09 22:06:00,
2013-03-10 00:07:00,64.2,45.2,30.15,ENE,68,0.0,0.0,50,0.00,,---,0.00,VWS V14.01,2013-03-09 22:07:00,
2013-03-10 00:08:00,64.2,45.2,30.15,East,90,0.0,0.0,50,0.00,,---,0.00,VWS V14.01,2013-03-09 22:08:00,
2013-03-10 00:09:00,64.2,45.2,30.15,East,90,0.0,0.0,50,0.00,,---,0.00,VWS V14.01,2013-03-09 22:09:00,
2013-03-10 00:10:00,64.2,45.2,30.15,ESE,112,0.0,0.0,50,0.00,,---,0.00,VWS V14.01,2013-03-09 22:10:00,
2013-03-10 00:11:00,64.0,45.0,30.15,East,90,0.0,0.0,50,0.00,,---,0.00,VWS V14.01,2013-03-09 22:11:00,
2013-03-10 00:12:00,64.0,45.0,30.15,ENE,68,0.0,0.0,50,0.00,,---,0.00,VWS V14.01,2013-03-09 22:12:00,
2013-03-10 00:13:00,64.0,45.0,30.15,ESE,112,0.0,0.0,50,0.00,,---,0.00,VWS V14.01,2013-03-09 22:13:00,
2013-03-10 00:14:00,64.0,45.0,30.15,East,90,0.0,0.0,50,0.00,,---,0.00,VWS V14.01,2013-03-09 22:14:00,
2013-03-10 00:15:00,63.9,45.4,30.15,East,90,0.0,0.0,51,0.00,,---,0.00,VWS V14.01,2013-03-09 22:15:00,
2013-03-10 00:16:00,63.9,45.4,30.15,ESE,112,0.0,0.0,51,0.00,,---,0.00,VWS V14.01,2013-03-09 22:16:00,
2013-03-10 00:17:00,63.9,45.4,30.15,ENE,68,0.0,0.0,51,0.00,,---,0.00,VWS V14.01,2013-03-09 22:17:00,
2013-03-10 00:18:00,63.9,45.4,30.15,East,90,0.0,0.0,51,0.00,,---,0.00,VWS V14.01,2013-03-09 22:18:00,
2013-03-10 00:19:00,63.9,45.4,30.15,East,90,0.0,0.0,51,0.00,,---,0.00,VWS V14.01,2013-03-09 22:19:00,
2013-03-10 00:20:00,63.9,45.9,30.15,ENE,68,0.0,0.0,52,0.00,,---,0.00,VWS V14.01,2013-03-09 22:20:00,
2013-03-10 00:21:00,63.9,45.9,30.15,ENE,68,0.0,0.0,52,0.00,,---,0.00,VWS V14.01,2013-03-09 22:21:00,
2013-03-10 00:22:00,63.9,45.9,30.15,East,90,0.0,0.0,52,0.00,,---,0.00,VWS V14.01,2013-03-09 22:22:00,
2013-03-10 00:23:00,63.9,45.9,30.15,East,90,0.0,0.0,52,0.00,,---,0.00,VWS V14.01,2013-03-09 22:23:00,
2013-03-10 00:24:00,63.9,45.4,30.15,East,90,0.0,0.0,51,0.00,,---,0.00,VWS V14.01,2013-03-09 22:24:00,
2013-03-10 00:25:00,63.9,45.4,30.15,East,90,0.0,0.0,51,0.00,,---,0.00,VWS V14.01,2013-03-09 22:25:00,
2013-03-10 00:26:00,63.7,45.2,30.15,ENE,68,0.0,0.0,51,0.00,,---,0.00,VWS V14.01,2013-03-09 22:26:00,
2013-03-10 00:27:00,63.7,45.2,30.15,ESE,112,0.0,0.0,51,0.00,,---,0.00,VWS V14.01,2013-03-09 22:27:00,
2013-03-10 00:28:00,63.7,45.2,30.15,East,90,0.0,0.0,51,0.00,,---,0.00,VWS V14.01,2013-03-09 22:28:00,
2013-03-10 00:29:00,63.7,45.2,30.15,ENE,68,0.0,0.0,51,0.00,,---,0.00,VWS V14.01,2013-03-09 22:29:00,
2013-03-10 00:30:00,63.7,45.2,30.15,ESE,112,0.0,0.0,51,0.00,,---,0.00,VWS V14.01,2013-03-09 22:30:00,
2013-03-10 00:31:00,63.7,45.2,30.15,ESE,112,0.0,0.0,51,0.00,,---,0.00,VWS V14.01,2013-03-09 22:31:00,
2013-03-10 00:32:00,63.7,45.2,30.15,ESE,112,0.0,0.0,51,0.00,,---,0.00,VWS V14.01,2013-03-09 22:32:00,
2013-03-10 00:33:00,63.7,45.2,30.15,ESE,112,0.0,0.0,51,0.00,,---,0.00,VWS V14.01,2013-03-09 22:33:00,
2013-03-10 00:34:00,63.5,45.6,30.15,ESE,112,0.0,0.0,52,0.00,,---,0.00,VWS V14.01,2013-03-09 22:34:00,
2013-03-10 00:35:00,63.5,45.6,30.15,East,90,0.0,0.0,52,0.00,,---,0.00,VWS V14.01,2013-03-09 22:35:00,
2013-03-10 00:36:00,63.5,45.6,30.15,East,90,0.0,0.0,52,0.00,,---,0.00,VWS V14.01,2013-03-09 22:36:00,
2013-03-10 00:37:00,63.5,45.6,30.15,East,90,0.0,0.0,52,0.00,,---,0.00,VWS V14.01,2013-03-09 22:37:00,
2013-03-10 00:38:00,63.5,45.6,30.15,East,90,0.0,0.0,52,0.00,,---,0.00,VWS V14.01,2013-03-09 22:38:00,
2013-03-10 00:39:00,63.5,45.6,30.15,ENE,68,0.0,0.0,52,0.00,,---,0.00,VWS V14.01,2013-03-09 22:39:00,
2013-03-10 00:40:00,63.5,45.6,30.15,East,90,0.0,0.0,52,0.00,,---,0.00,VWS V14.01,2013-03-09 22:40:00,
2013-03-10 00:41:00,63.5,45.6,30.15,ENE,68,0.0,0.0,52,0.00,,---,0.00,VWS V14.01,2013-03-09 22:41:00,
2013-03-10 00:42:00,63.5,45.6,30.15,ESE,112,0.0,0.0,52,0.00,,---,0.00,VWS V14.01,2013-03-09 22:42:00,
2013-03-10 00:43:00,63.5,45.6,30.15,ESE,112,0.0,0.0,52,0.00,,---,0.00,VWS V14.01,2013-03-09 22:43:00,
2013-03-10 00:44:00,63.5,45.6,30.15,ESE,112,0.0,0.0,52,0.00,,---,0.00,VWS V14.01,2013-03-09 22:44:00,
2013-03-10 00:45:00,63.5,45.6,30.15,NE,45,0.0,0.0,52,0.00,,---,0.00,VWS V14.01,2013-03-09 22:45:00,
2013-03-10 00:46:00,63.5,45.6,30.15,NE,45,0.0,0.0,52,0.00,,---,0.00,VWS V14.01,2013-03-09 22:46:00,
2013-03-10 00:47:00,63.5,45.6,30.15,ENE,68,0.0,0.0,52,0.00,,---,0.00,VWS V14.01,2013-03-09 22:47:00,
2013-03-10 00:48:00,63.5,45.6,30.15,East,90,0.0,0.0,52,0.00,,---,0.00,VWS V14.01,2013-03-09 22:48:00,
2013-03-10 00:49:00,63.5,45.6,30.15,ENE,68,0.0,0.0,52,0.00,,---,0.00,VWS V14.01,2013-03-09 22:49:00,
2013-03-10 00:50:00,63.5,45.6,30.15,ENE,68,0.0,0.0,52,0.00,,---,0.00,VWS V14.01,2013-03-09 22:50:00,
2013-03-10 00:51:00,63.5,45.6,30.15,ENE,68,0.0,0.0,52,0.00,,---,0.00,VWS V14.01,2013-03-09 22:51:00,
2013-03-10 00:52:00,63.5,45.6,30.15,ENE,68,0.0,0.0,52,0.00,,---,0.00,VWS V14.01,2013-03-09 22:52:00,
2013-03-10 00:53:00,63.5,46.1,30.15,ESE,112,0.0,0.0,53,0.00,,---,0.00,VWS V14.01,2013-03-09 22:53:00,
2013-03-10 00:54:00,63.5,46.1,30.15,East,90,0.0,0.0,53,0.00,,---,0.00,VWS V14.01,2013-03-09 22:54:00,
2013-03-10 00:55:00,63.5,46.1,30.15,East,90,0.0,0.0,53,0.00,,---,0.00,VWS V14.01,2013-03-09 22:55:00,
2013-03-10 00:56:00,63.5,46.1,30.15,East,90,0.0,0.0,53,0.00,,---,0.00,VWS V14.01,2013-03-09 22:56:00,
2013-03-10 00:57:00,63.5,46.1,30.15,ENE,68,0.0,0.0,53,0.00,,---,0.00,VWS V14.01,2013-03-09 22:57:00,
2013-03-10 00:58:00,63.5,46.1,30.15,ENE,68,0.0,0.0,53,0.00,,---,0.00,VWS V14.01,2013-03-09 22:58:00,
2013-03-10 00:59:00,63.5,46.1,30.15,East,90,0.0,0.0,53,0.00,,---,0.00,VWS V14.01,2013-03-09 22:59:00,
2013-03-10 01:00:00,63.3,45.9,30.15,ENE,68,0.0,0.0,53,0.00,,---,0.00,VWS V14.01,2013-03-09 23:00:00,
2013-03-10 01:01:00,63.3,45.9,30.15,East,90,0.0,0.0,53,0.00,,---,0.00,VWS V14.01,2013-03-09 23:01:00,
2013-03-10 01:02:00,63.3,45.9,30.15,ENE,68,0.0,0.0,53,0.00,,---,0.00,VWS V14.01,2013-03-09 23:02:00,
2013-03-10 01:03:00,63.3,46.4,30.15,ESE,112,0.0,0.0,54,0.00,,---,0.00,VWS V14.01,2013-03-09 23:03:00,
2013-03-10 01:04:00,63.3,45.9,30.15,ENE,68,0.0,0.0,53,0.00,,---,0.00,VWS V14.01,2013-03-09 23:04:00,
2013-03-10 01:05:00,63.3,45.9,30.15,ENE,68,0.0,0.0,53,0.00,,---,0.00,VWS V14.01,2013-03-09 23:05:00,
2013-03-10 01:06:00,63.3,46.4,30.15,East,90,0.0,0.0,54,0.00,,---,0.00,VWS V14.01,2013-03-09 23:06:00,
2013-03-10 01:07:00,63.3,46.4,30.15,East,90,0.0,0.0,54,0.00,,---,0.00,VWS V14.01,2013-03-09 23:07:00,
2013-03-10 01:08:00,63.3,46.4,30.15,East,90,0.0,0.0,54,0.00,,---,0.00,VWS V14.01,2013-03-09 23:08:00,
2013-03-10 01:09:00,63.3,45.9,30.15,ESE,112,0.0,0.0,53,0.00,,---,0.00,VWS V14.01,2013-03-09 23:09:00,
2013-03-10 01:10:00,63.3,45.9,30.12,ENE,68,0.0,0.0,53,0.00,,---,0.00,VWS V14.01,2013-03-09 23:10:00,
2013-03-10 01:11:00,63.3,45.9,30.12,NNE,22,0.0,0.0,53,0.00,,---,0.00,VWS V14.01,2013-03-09 23:11:00,
2013-03-10 01:12:00,63.3,45.9,30.12,NNE,22,0.0,0.0,53,0.00,,---,0.00,VWS V14.01,2013-03-09 23:12:00,
2013-03-10 01:13:00,63.3,45.9,30.12,East,90,0.0,0.0,53,0.00,,---,0.00,VWS V14.01,2013-03-09 23:13:00,
2013-03-10 01:14:00,63.3,45.9,30.12,East,90,0.0,0.0,53,0.00,,---,0.00,VWS V14.01,2013-03-09 23:14:00,
2013-03-10 01:15:00,63.3,45.9,30.12,ENE,68,0.0,0.0,53,0.00,,---,0.00,VWS V14.01,2013-03-09 23:15:00,
2013-03-10 01:16:00,63.3,46.4,30.12,East,90,0.0,0.0,54,0.00,,---,0.00,VWS V14.01,2013-03-09 23:16:00,
2013-03-10 01:17:00,63.3,46.4,30.12,ENE,68,0.0,0.0,54,0.00,,---,0.00,VWS V14.01,2013-03-09 23:17:00,
2013-03-10 01:18:00,63.3,46.4,30.12,ENE,68,0.0,0.0,54,0.00,,---,0.00,VWS V14.01,2013-03-09 23:18:00,
2013-03-10 01:19:00,63.3,46.4,30.12,ESE,112,0.0,0.0,54,0.00,,---,0.00,VWS V14.01,2013-03-09 23:19:00,
2013-03-10 01:20:00,63.3,46.4,30.12,ENE,68,0.0,0.0,54,0.00,,---,0.00,VWS V14.01,2013-03-09 23:20:00,
2013-03-10 01:21:00,63.3,46.4,30.12,ESE,112,0.0,0.0,54,0.00,,---,0.00,VWS V14.01,2013-03-09 23:21:00,
2013-03-10 01:22:00,63.3,46.4,30.12,ENE,68,0.0,0.0,54,0.00,,---,0.00,VWS V14.01,2013-03-09 23:22:00,
2013-03-10 01:23:00,63.3,46.4,30.12,East,90,0.0,0.0,54,0.00,,---,0.00,VWS V14.01,2013-03-09 23:23:00,
2013-03-10 01:24:00,63.3,46.4,30.12,ENE,68,0.0,0.0,54,0.00,,---,0.00,VWS V14.01,2013-03-09 23:24:00,
2013-03-10 01:25:00,63.3,45.9,30.12,NE,45,0.0,0.0,53,0.00,,---,0.00,VWS V14.01,2013-03-09 23:25:00,
2013-03-10 01:26:00,63.3,45.9,30.12,NE,45,0.0,0.0,53,0.00,,---,0.00,VWS V14.01,2013-03-09 23:26:00,
2013-03-10 01:27:00,63.3,45.9,30.12,ENE,68,0.0,0.0,53,0.00,,---,0.00,VWS V14.01,2013-03-09 23:27:00,
2013-03-10 01:28:00,63.3,45.9,30.12,ENE,68,0.0,0.0,53,0.00,,---,0.00,VWS V14.01,2013-03-09 23:28:00,
2013-03-10 01:29:00,63.3,46.4,30.12,ENE,68,0.0,0.0,54,0.00,,---,0.00,VWS V14.01,2013-03-09 23:29:00,
2013-03-10 01:30:00,63.3,46.4,30.12,ENE,68,0.0,0.0,54,0.00,,---,0.00,VWS V14.01,2013-03-09 23:30:00,
2013-03-10 01:31:00,63.3,46.4,30.12,East,90,0.0,0.0,54,0.00,,---,0.00,VWS V14.01,2013-03-09 23:31:00,
2013-03-10 01:32:00,63.3,46.4,30.12,East,90,0.0,0.0,54,0.00,,---,0.00,VWS V14.01,2013-03-09 23:32:00,
2013-03-10 01:33:00,63.3,46.4,30.12,East,90,0.0,0.0,54,0.00,,---,0.00,VWS V14.01,2013-03-09 23:33:00,
2013-03-10 01:34:00,63.1,46.2,30.12,ESE,112,0.0,0.0,54,0.00,,---,0.00,VWS V14.01,2013-03-09 23:34:00,
2013-03-10 01:35:00,63.1,46.2,30.12,East,90,0.0,0.0,54,0.00,,---,0.00,VWS V14.01,2013-03-09 23:35:00,
2013-03-10 01:36:00,63.1,46.2,30.12,ENE,68,0.0,0.0,54,0.00,,---,0.00,VWS V14.01,2013-03-09 23:36:00,
2013-03-10 01:37:00,63.1,46.2,30.12,East,90,0.0,0.0,54,0.00,,---,0.00,VWS V14.01,2013-03-09 23:37:00,
2013-03-10 01:38:00,63.1,46.2,30.12,ENE,68,0.0,0.0,54,0.00,,---,0.00,VWS V14.01,2013-03-09 23:38:00,
2013-03-10 01:39:00,63.1,46.2,30.12,ENE,68,0.0,0.0,54,0.00,,---,0.00,VWS V14.01,2013-03-09 23:39:00,
2013-03-10 01:40:00,63.1,46.2,30.12,ESE,112,0.0,0.0,54,0.00,,---,0.00,VWS V14.01,2013-03-09 23:40:00,
2013-03-10 01:41:00,63.1,46.2,30.12,ENE,68,0.0,0.0,54,0.00,,---,0.00,VWS V14.01,2013-03-09 23:41:00,
2013-03-10 01:42:00,63.1,46.2,30.12,East,90,0.0,0.0,54,0.00,,---,0.00,VWS V14.01,2013-03-09 23:42:00,
2013-03-10 01:43:00,63.1,46.2,30.12,ENE,68,0.0,0.0,54,0.00,,---,0.00,VWS V14.01,2013-03-09 23:43:00,
2013-03-10 01:44:00,63.1,46.2,30.12,ENE,68,0.0,0.0,54,0.00,,---,0.00,VWS V14.01,2013-03-09 23:44:00,
2013-03-10 01:45:00,63.1,46.2,30.12,ENE,68,0.0,0.0,54,0.00,,---,0.00,VWS V14.01,2013-03-09 23:45:00,
2013-03-10 01:46:00,63.1,46.2,30.12,East,90,0.0,0.0,54,0.00,,---,0.00,VWS V14.01,2013-03-09 23:46:00,
2013-03-10 01:47:00,63.1,46.2,30.12,ENE,68,0.0,0.0,54,0.00,,---,0.00,VWS V14.01,2013-03-09 23:47:00,
2013-03-10 01:48:00,63.1,46.2,30.12,ENE,68,0.0,0.0,54,0.00,,---,0.00,VWS V14.01,2013-03-09 23:48:00,
2013-03-10 01:49:00,63.1,46.2,30.12,East,90,0.0,0.0,54,0.00,,---,0.00,VWS V14.01,2013-03-09 23:49:00,
2013-03-10 01:50:00,63.1,46.2,30.12,ENE,68,0.0,0.0,54,0.00,,---,0.00,VWS V14.01,2013-03-09 23:50:00,
2013-03-10 01:51:00,63.1,46.2,30.12,ENE,68,0.0,0.0,54,0.00,,---,0.00,VWS V14.01,2013-03-09 23:51:00,
2013-03-10 01:52:00,63.1,46.2,30.12,East,90,0.0,0.0,54,0.00,,---,0.00,VWS V14.01,2013-03-09 23:52:00,
2013-03-10 01:53:00,63.1,46.2,30.12,ENE,68,0.0,0.0,54,0.00,,---,0.00,VWS V14.01,2013-03-09 23:53:00,
2013-03-10 01:54:00,63.1,46.2,30.12,ENE,68,0.0,0.0,54,0.00,,---,0.00,VWS V14.01,2013-03-09 23:54:00,
2013-03-10 01:55:00,63.1,46.2,30.12,ENE,68,0.0,0.0,54,0.00,,---,0.00,VWS V14.01,2013-03-09 23:55:00,
2013-03-10 01:56:00,63.1,46.2,30.12,ESE,112,0.0,0.0,54,0.00,,---,0.00,VWS V14.01,2013-03-09 23:56:00,
2013-03-10 01:57:00,63.1,46.2,30.12,ENE,68,0.0,0.0,54,0.00,,---,0.00,VWS V14.01,2013-03-09 23:57:00,
2013-03-10 01:58:00,63.1,46.2,30.12,East,90,0.0,0.0,54,0.00,,---,0.00,VWS V14.01,2013-03-09 23:58:00,
2013-03-10 01:59:00,63.1,46.7,30.12,East,90,0.0,0.0,55,0.00,,---,0.00,VWS V14.01,2013-03-09 23:59:00,
2013-03-10 02:00:00,63.1,46.7,30.12,ENE,68,0.0,0.0,55,0.00,,---,0.00,VWS V14.01,2013-03-10 00:00:00,
2013-03-10 02:01:00,63.1,46.7,30.12,ENE,68,0.0,0.0,55,0.00,,---,0.00,VWS V14.01,2013-03-10 00:01:00,
2013-03-10 02:02:00,63.1,46.7,30.12,East,90,0.0,0.0,55,0.00,,---,0.00,VWS V14.01,2013-03-10 00:02:00,
2013-03-10 02:03:00,63.1,46.7,30.12,ESE,112,0.0,0.0,55,0.00,,---,0.00,VWS V14.01,2013-03-10 00:03:00,
2013-03-10 02:04:00,63.1,46.2,30.12,ENE,68,0.0,0.0,54,0.00,,---,0.00,VWS V14.01,2013-03-10 00:04:00,
2013-03-10 02:05:00,63.1,46.2,30.12,ESE,112,0.0,0.0,54,0.00,,---,0.00,VWS V14.01,2013-03-10 00:05:00,
2013-03-10 02:06:00,63.1,46.2,30.12,ENE,68,0.0,0.0,54,0.00,,---,0.00,VWS V14.01,2013-03-10 00:06:00,
2013-03-10 02:07:00,63.1,46.2,30.12,ESE,112,0.0,0.0,54,0.00,,---,0.00,VWS V14.01,2013-03-10 00:07:00,
2013-03-10 02:08:00,63.1,46.2,30.12,ESE,112,0.0,0.0,54,0.00,,---,0.00,VWS V14.01,2013-03-10 00:08:00,
2013-03-10 02:09:00,63.1,46.2,30.12,ESE,112,0.0,0.0,54,0.00,,---,0.00,VWS V14.01,2013-03-10 00:09:00,
2013-03-10 02:10:00,63.1,46.2,30.12,ESE,112,0.0,0.0,54,0.00,,---,0.00,VWS V14.01,2013-03-10 00:10:00,
2013-03-10 02:11:00,63.1,46.7,30.12,ENE,68,0.0,0.0,55,0.00,,---,0.00,VWS V14.01,2013-03-10 00:11:00,
2013-03-10 02:12:00,63.1,46.7,30.12,ENE,68,0.0,0.0,55,0.00,,---,0.00,VWS V14.01,2013-03-10 00:12:00,
2013-03-10 02:13:00,63.1,46.7,30.12,ENE,68,0.0,0.0,55,0.00,,---,0.00,VWS V14.01,2013-03-10 00:13:00,
2013-03-10 02:14:00,63.1,46.7,30.12,ENE,68,0.0,0.0,55,0.00,,---,0.00,VWS V14.01,2013-03-10 00:14:00,
2013-03-10 02:15:00,63.1,46.7,30.12,ENE,68,0.0,0.0,55,0.00,,---,0.00,VWS V14.01,2013-03-10 00:15:00,
2013-03-10 02:16:00,63.1,46.2,30.12,ESE,112,0.0,0.0,54,0.00,,---,0.00,VWS V14.01,2013-03-10 00:16:00,
2013-03-10 02:17:00,63.1,46.2,30.12,ENE,68,0.0,0.0,54,0.00,,---,0.00,VWS V14.01,2013-03-10 00:17:00,
2013-03-10 02:18:00,63.1,46.2,30.12,NNE,22,0.0,0.0,54,0.00,,---,0.00,VWS V14.01,2013-03-10 00:18:00,
2013-03-10 02:19:00,63.1,46.7,30.12,NNE,22,0.0,0.0,55,0.00,,---,0.00,VWS V14.01,2013-03-10 00:19:00,
2013-03-10 02:20:00,63.1,46.7,30.12,ENE,68,0.0,0.0,55,0.00,,---,0.00,VWS V14.01,2013-03-10 00:20:00,
2013-03-10 02:21:00,63.1,46.7,30.12,East,90,0.0,0.0,55,0.00,,---,0.00,VWS V14.01,2013-03-10 00:21:00,
2013-03-10 02:22:00,63.1,46.7,30.12,East,90,0.0,0.0,55,0.00,,---,0.00,VWS V14.01,2013-03-10 00:22:00,
2013-03-10 02:23:00,63.1,46.7,30.12,East,90,0.0,0.0,55,0.00,,---,0.00,VWS V14.01,2013-03-10 00:23:00,
2013-03-10 02:24:00,63.1,46.7,30.12,ENE,68,0.0,0.0,55,0.00,,---,0.00,VWS V14.01,2013-03-10 00:24:00,
2013-03-10 02:25:00,63.1,46.7,30.12,ENE,68,0.0,0.0,55,0.00,,---,0.00,VWS V14.01,2013-03-10 00:25:00,
2013-03-10 02:26:00,63.1,46.7,30.12,ENE,68,0.0,0.0,55,0.00,,---,0.00,VWS V14.01,2013-03-10 00:26:00,
2013-03-10 02:27:00,63.1,46.7,30.12,ESE,112,0.0,0.0,55,0.00,,---,0.00,VWS V14.01,2013-03-10 00:27:00,
2013-03-10 02:28:00,63.1,47.2,30.12,SE,135,0.0,0.0,56,0.00,,---,0.00,VWS V14.01,2013-03-10 00:28:00,
2013-03-10 02:29:00,63.1,47.2,30.12,SE,135,0.0,0.0,56,0.00,,---,0.00,VWS V14.01,2013-03-10 00:29:00,
2013-03-10 02:31:00,63.1,47.2,30.12,East,90,0.0,0.0,56,0.00,,---,0.00,VWS V14.01,2013-03-10 00:31:00,
2013-03-10 02:32:00,63.1,47.2,30.12,ENE,68,0.0,0.0,56,0.00,,---,0.00,VWS V14.01,2013-03-10 00:32:00,
2013-03-10 02:33:00,63.1,47.2,30.12,NE,45,0.0,0.0,56,0.00,,---,0.00,VWS V14.01,2013-03-10 00:33:00,
2013-03-10 02:34:00,63.1,47.2,30.12,East,90,0.0,0.0,56,0.00,,---,0.00,VWS V14.01,2013-03-10 00:34:00,
2013-03-10 02:35:00,63.1,47.7,30.12,East,90,0.0,0.0,57,0.00,,---,0.00,VWS V14.01,2013-03-10 00:35:00,
2013-03-10 02:36:00,63.1,47.7,30.12,East,90,0.0,0.0,57,0.00,,---,0.00,VWS V14.01,2013-03-10 00:36:00,
2013-03-10 02:37:00,63.1,47.7,30.12,ENE,68,0.0,0.0,57,0.00,,---,0.00,VWS V14.01,2013-03-10 00:37:00,
2013-03-10 02:38:00,63.1,47.7,30.12,East,90,0.0,0.0,57,0.00,,---,0.00,VWS V14.01,2013-03-10 00:38:00,
2013-03-10 02:39:00,63.1,47.7,30.12,ENE,68,0.0,0.0,57,0.00,,---,0.00,VWS V14.01,2013-03-10 00:39:00,
2013-03-10 02:40:00,63.1,47.7,30.12,East,90,0.0,0.0,57,0.00,,---,0.00,VWS V14.01,2013-03-10 00:40:00,
2013-03-10 02:41:00,63.1,47.7,30.12,NE,45,0.0,0.0,57,0.00,,---,0.00,VWS V14.01,2013-03-10 00:41:00,
2013-03-10 02:42:00,63.1,47.2,30.12,ESE,112,0.0,0.0,56,0.00,,---,0.00,VWS V14.01,2013-03-10 00:42:00,
2013-03-10 02:43:00,63.1,47.2,30.12,ESE,112,0.0,0.0,56,0.00,,---,0.00,VWS V14.01,2013-03-10 00:43:00,
2013-03-10 02:44:00,63.1,47.2,30.12,ESE,112,0.0,0.0,56,0.00,,---,0.00,VWS V14.01,2013-03-10 00:44:00,
2013-03-10 02:45:00,63.1,47.7,30.12,ESE,112,0.0,0.0,57,0.00,,---,0.00,VWS V14.01,2013-03-10 00:45:00,
2013-03-10 02:46:00,63.1,47.7,30.12,East,90,0.0,0.0,57,0.00,,---,0.00,VWS V14.01,2013-03-10 00:46:00,
2013-03-10 02:47:00,63.1,47.2,30.12,East,90,0.0,0.0,56,0.00,,---,0.00,VWS V14.01,2013-03-10 00:47:00,
2013-03-10 02:48:00,63.1,47.2,30.12,East,90,0.0,0.0,56,0.00,,---,0.00,VWS V14.01,2013-03-10 00:48:00,
2013-03-10 02:49:00,63.1,47.2,30.12,NE,45,0.0,0.0,56,0.00,,---,0.00,VWS V14.01,2013-03-10 00:49:00,
2013-03-10 02:50:00,63.1,47.2,30.12,NE,45,0.0,0.0,56,0.00,,---,0.00,VWS V14.01,2013-03-10 00:50:00,
2013-03-10 02:51:00,63.1,47.2,30.12,East,90,0.0,0.0,56,0.00,,---,0.00,VWS V14.01,2013-03-10 00:51:00,
2013-03-10 02:52:00,63.1,47.2,30.12,ENE,68,0.0,0.0,56,0.00,,---,0.00,VWS V14.01,2013-03-10 00:52:00,
2013-03-10 02:53:00,63.1,47.2,30.12,ENE,68,0.0,0.0,56,0.00,,---,0.00,VWS V14.01,2013-03-10 00:53:00,
2013-03-10 02:54:00,63.1,47.2,30.12,East,90,0.0,0.0,56,0.00,,---,0.00,VWS V14.01,2013-03-10 00:54:00,
2013-03-10 02:55:00,63.1,47.2,30.12,East,90,0.0,0.0,56,0.00,,---,0.00,VWS V14.01,2013-03-10 00:55:00,
2013-03-10 02:56:00,63.1,47.2,30.12,East,90,0.0,0.0,56,0.00,,---,0.00,VWS V14.01,2013-03-10 00:56:00,
2013-03-10 02:57:00,63.1,47.2,30.12,East,90,0.0,0.0,56,0.00,,---,0.00,VWS V14.01,2013-03-10 00:57:00,
2013-03-10 02:59:00,63.1,46.7,30.12,ESE,112,0.0,0.0,55,0.00,,---,0.00,VWS V14.01,2013-03-10 00:59:00,
2013-03-10 03:00:00,63.1,46.7,30.12,East,90,0.0,0.0,55,0.00,,---,0.00,VWS V14.01,2013-03-10 01:00:00,
2013-03-10 03:01:00,63.1,46.7,30.12,ENE,68,0.0,0.0,55,0.00,,---,0.00,VWS V14.01,2013-03-10 01:01:00,
2013-03-10 03:02:00,63.1,47.2,30.12,East,90,0.0,0.0,56,0.00,,---,0.00,VWS V14.01,2013-03-10 01:02:00,
2013-03-10 03:03:00,63.1,47.2,30.12,ENE,68,0.0,0.0,56,0.00,,---,0.00,VWS V14.01,2013-03-10 01:03:00,
2013-03-10 03:04:00,63.1,47.2,30.12,ENE,68,0.0,0.0,56,0.00,,---,0.00,VWS V14.01,2013-03-10 01:04:00,
2013-03-10 03:05:00,63.1,47.2,30.12,East,90,0.0,0.0,56,0.00,,---,0.00,VWS V14.01,2013-03-10 01:05:00,
2013-03-10 03:06:00,63.1,47.2,30.12,ESE,112,0.0,0.0,56,0.00,,---,0.00,VWS V14.01,2013-03-10 01:06:00,
2013-03-10 03:07:00,63.1,47.2,30.12,ENE,68,0.0,0.0,56,0.00,,---,0.00,VWS V14.01,2013-03-10 01:07:00,
2013-03-10 03:08:00,63.1,47.2,30.12,ESE,112,0.0,0.0,56,0.00,,---,0.00,VWS V14.01,2013-03-10 01:08:00,
2013-03-10 03:09:00,63.1,47.7,30.12,East,90,0.0,0.0,57,0.00,,---,0.00,VWS V14.01,2013-03-10 01:09:00,
2013-03-10 03:10:00,63.1,47.7,30.09,East,90,0.0,0.0,57,0.00,,---,0.00,VWS V14.01,2013-03-10 01:10:00,
2013-03-10 03:11:00,63.1,47.7,30.09,East,90,0.0,0.0,57,0.00,,---,0.00,VWS V14.01,2013-03-10 01:11:00,
2013-03-10 03:12:00,63.1,47.2,30.09,East,90,0.0,0.0,56,0.00,,---,0.00,VWS V14.01,2013-03-10 01:12:00,
2013-03-10 03:13:00,63.1,47.2,30.09,East,90,0.0,0.0,56,0.00,,---,0.00,VWS V14.01,2013-03-10 01:13:00,
2013-03-10 03:14:00,63.3,46.9,30.09,ENE,68,0.0,0.0,55,0.00,,---,0.00,VWS V14.01,2013-03-10 01:14:00,
2013-03-10 03:15:00,63.3,47.4,30.09,East,90,0.0,0.0,56,0.00,,---,0.00,VWS V14.01,2013-03-10 01:15:00,
2013-03-10 03:16:00,63.3,47.4,30.09,ENE,68,0.0,0.0,56,0.00,,---,0.00,VWS V14.01,2013-03-10 01:16:00,
2013-03-10 03:17:00,63.3,47.4,30.09,ENE,68,0.0,0.0,56,0.00,,---,0.00,VWS V14.01,2013-03-10 01:17:00,
2013-03-10 03:18:00,63.3,47.4,30.09,ENE,68,0.0,0.0,56,0.00,,---,0.00,VWS V14.01,2013-03-10 01:18:00,
2013-03-10 03:19:00,63.3,47.4,30.09,ENE,68,0.0,0.0,56,0.00,,---,0.00,VWS V14.01,2013-03-10 01:19:00,
2013-03-10 03:20:00,63.3,46.9,30.09,East,90,0.0,0.0,55,0.00,,---,0.00,VWS V14.01,2013-03-10 01:20:00,
2013-03-10 03:21:00,63.3,46.9,30.09,East,90,0.0,0.0,55,0.00,,---,0.00,VWS V14.01,2013-03-10 01:21:00,
2013-03-10 03:22:00,63.3,46.9,30.09,ESE,112,0.0,0.0,55,0.00,,---,0.00,VWS V14.01,2013-03-10 01:22:00,
2013-03-10 03:23:00,63.3,46.9,30.09,ESE,112,0.0,0.0,55,0.00,,---,0.00,VWS V14.01,2013-03-10 01:23:00,
2013-03-10 03:24:00,63.3,46.4,30.09,ENE,68,0.0,0.0,54,0.00,,---,0.00,VWS V14.01,2013-03-10 01:24:00,
2013-03-10 03:25:00,63.3,46.4,30.09,ENE,68,0.0,0.0,54,0.00,,---,0.00,VWS V14.01,2013-03-10 01:25:00,
2013-03-10 03:26:00,63.3,46.4,30.09,ENE,68,0.0,0.0,54,0.00,,---,0.00,VWS V14.01,2013-03-10 01:26:00,
2013-03-10 03:27:00,63.3,46.4,30.09,East,90,0.0,0.0,54,0.00,,---,0.00,VWS V14.01,2013-03-10 01:27:00,
2013-03-10 03:28:00,63.3,45.4,30.09,ESE,112,0.0,0.0,52,0.00,,---,0.00,VWS V14.01,2013-03-10 01:28:00,
2013-03-10 03:29:00,63.3,45.4,30.09,ESE,112,0.0,0.0,52,0.00,,---,0.00,VWS V14.01,2013-03-10 01:29:00,
2013-03-10 03:30:00,63.3,45.4,30.09,ENE,68,0.0,0.0,52,0.00,,---,0.00,VWS V14.01,2013-03-10 01:30:00,
2013-03-10 03:31:00,63.3,45.4,30.09,East,90,0.0,0.0,52,0.00,,---,0.00,VWS V14.01,2013-03-10 01:31:00,
2013-03-10 03:32:00,63.3,44.9,30.09,ESE,112,0.0,0.0,51,0.00,,---,0.00,VWS V14.01,2013-03-10 01:32:00,
2013-03-10 03:33:00,63.3,44.9,30.09,East,90,0.0,0.0,51,0.00,,---,0.00,VWS V14.01,2013-03-10 01:33:00,
2013-03-10 03:34:00,63.3,44.9,30.09,East,90,0.0,0.0,51,0.00,,---,0.00,VWS V14.01,2013-03-10 01:34:00,
2013-03-10 03:35:00,63.3,44.4,30.09,East,90,0.0,0.0,50,0.00,,---,0.00,VWS V14.01,2013-03-10 01:35:00,
2013-03-10 03:36:00,63.3,44.4,30.09,East,90,0.0,0.0,50,0.00,,---,0.00,VWS V14.01,2013-03-10 01:36:00,
2013-03-10 03:37:00,63.3,44.4,30.09,NE,45,0.0,0.0,50,0.00,,---,0.00,VWS V14.01,2013-03-10 01:37:00,
2013-03-10 03:38:00,63.3,44.4,30.09,ENE,68,0.0,0.0,50,0.00,,---,0.00,VWS V14.01,2013-03-10 01:38:00,
2013-03-10 03:39:00,63.3,44.4,30.09,ENE,68,0.0,0.0,50,0.00,,---,0.00,VWS V14.01,2013-03-10 01:39:00,
2013-03-10 03:40:00,63.3,44.4,30.09,East,90,0.0,0.0,50,0.00,,---,0.00,VWS V14.01,2013-03-10 01:40:00,
2013-03-10 03:41:00,63.3,44.4,30.09,ENE,68,0.0,0.0,50,0.00,,---,0.00,VWS V14.01,2013-03-10 01:41:00,
2013-03-10 03:42:00,63.1,44.2,30.09,East,90,0.0,0.0,50,0.00,,---,0.00,VWS V14.01,2013-03-10 01:42:00,
2013-03-10 03:43:00,63.1,44.2,30.09,East,90,0.0,0.0,50,0.00,,---,0.00,VWS V14.01,2013-03-10 01:43:00,
2013-03-10 03:44:00,63.1,44.2,30.09,East,90,0.0,0.0,50,0.00,,---,0.00,VWS V14.01,2013-03-10 01:44:00,
2013-03-10 03:45:00,63.1,43.7,30.09,ESE,112,0.0,0.0,49,0.00,,---,0.00,VWS V14.01,2013-03-10 01:45:00,
2013-03-10 03:46:00,63.1,43.7,30.09,ESE,112,0.0,0.0,49,0.00,,---,0.00,VWS V14.01,2013-03-10 01:46:00,
2013-03-10 03:47:00,63.1,44.2,30.09,NNE,22,0.0,0.0,50,0.00,,---,0.00,VWS V14.01,2013-03-10 01:47:00,
2013-03-10 03:48:00,63.1,44.2,30.09,ENE,68,0.0,0.0,50,0.00,,---,0.00,VWS V14.01,2013-03-10 01:48:00,
2013-03-10 03:49:00,63.1,44.2,30.09,ENE,68,0.0,0.0,50,0.00,,---,0.00,VWS V14.01,2013-03-10 01:49:00,
2013-03-10 03:50:00,63.1,44.2,30.09,ENE,68,0.0,0.0,50,0.00,,---,0.00,VWS V14.01,2013-03-10 01:50:00,
2013-03-10 03:51:00,63.1,44.2,30.09,North,0,0.0,0.0,50,0.00,,---,0.00,VWS V14.01,2013-03-10 01:51:00,
2013-03-10 03:52:00,63.1,44.2,30.09,ENE,68,0.0,0.0,50,0.00,,---,0.00,VWS V14.01,2013-03-10 01:52:00,
2013-03-10 03:53:00,63.1,44.2,30.09,ENE,68,0.0,0.0,50,0.00,,---,0.00,VWS V14.01,2013-03-10 01:53:00,
2013-03-10 03:54:00,63.0,44.0,30.09,ENE,68,0.0,0.0,50,0.00,,---,0.00,VWS V14.01,2013-03-10 01:54:00,
2013-03-10 03:55:00,63.0,44.0,30.09,East,90,0.0,0.0,50,0.00,,---,0.00,VWS V14.01,2013-03-10 01:55:00,
2013-03-10 03:56:00,63.0,44.0,30.09,ESE,112,0.0,0.0,50,0.00,,---,0.00,VWS V14.01,2013-03-10 01:56:00,
2013-03-10 03:57:00,63.0,44.0,30.09,ENE,68,0.0,0.0,50,0.00,,---,0.00,VWS V14.01,2013-03-10 01:57:00,
2013-03-10 03:58:00,63.0,44.0,30.09,ENE,68,0.0,0.0,50,0.00,,---,0.00,VWS V14.01,2013-03-10 01:58:00,
2013-03-10 03:59:00,63.0,44.0,30.09,NE,45,0.0,0.0,50,0.00,,---,0.00,VWS V14.01,2013-03-10 01:59:00,
2013-03-10 04:00:00,63.0,44.0,30.09,NE,45,0.0,0.0,50,0.00,,---,0.00,VWS V14.01,2013-03-10 02:00:00,
2013-03-10 04:01:00,63.0,44.0,30.09,ENE,68,0.0,0.0,50,0.00,,---,0.00,VWS V14.01,2013-03-10 02:01:00,
2013-03-10 04:02:00,63.0,44.0,30.09,ENE,68,0.0,0.0,50,0.00,,---,0.00,VWS V14.01,2013-03-10 02:02:00,
2013-03-10 04:03:00,63.0,44.0,30.09,ESE,112,0.0,0.0,50,0.00,,---,0.00,VWS V14.01,2013-03-10 02:03:00,
2013-03-10 04:04:00,63.0,44.0,30.09,East,90,0.0,0.0,50,0.00,,---,0.00,VWS V14.01,2013-03-10 02:04:00,
2013-03-10 04:05:00,63.0,43.5,30.09,East,90,0.0,0.0,49,0.00,,---,0.00,VWS V14.01,2013-03-10 02:05:00,
2013-03-10 04:06:00,63.0,43.5,30.09,ESE,112,0.0,0.0,49,0.00,,---,0.00,VWS V14.01,2013-03-10 02:06:00,
2013-03-10 04:07:00,63.0,43.5,30.09,ESE,112,0.0,0.0,49,0.00,,---,0.00,VWS V14.01,2013-03-10 02:07:00,
2013-03-10 04:08:00,63.0,44.0,30.09,ESE,112,0.0,0.0,50,0.00,,---,0.00,VWS V14.01,2013-03-10 02:08:00,
2013-03-10 04:09:00,63.0,44.0,30.09,ENE,68,0.0,0.0,50,0.00,,---,0.00,VWS V14.01,2013-03-10 02:09:00,
2013-03-10 04:10:00,62.8,43.9,30.09,ENE,68,0.0,0.0,50,0.00,,---,0.00,VWS V14.01,2013-03-10 02:10:00,
2013-03-10 04:11:00,62.8,43.9,30.09,ENE,68,0.0,0.0,50,0.00,,---,0.00,VWS V14.01,2013-03-10 02:11:00,
2013-03-10 04:12:00,62.8,43.9,30.09,East,90,0.0,0.0,50,0.00,,---,0.00,VWS V14.01,2013-03-10 02:12:00,
2013-03-10 04:13:00,62.8,43.9,30.09,ESE,112,0.0,0.0,50,0.00,,---,0.00,VWS V14.01,2013-03-10 02:13:00,
2013-03-10 04:14:00,62.8,43.9,30.09,ESE,112,0.0,0.0,50,0.00,,---,0.00,VWS V14.01,2013-03-10 02:14:00,
2013-03-10 04:15:00,62.8,43.9,30.09,ENE,68,0.0,0.0,50,0.00,,---,0.00,VWS V14.01,2013-03-10 02:15:00,
2013-03-10 04:16:00,62.8,43.9,30.09,East,90,0.0,0.0,50,0.00,,---,0.00,VWS V14.01,2013-03-10 02:16:00,
2013-03-10 04:17:00,62.8,43.9,30.09,ESE,112,0.0,0.0,50,0.00,,---,0.00,VWS V14.01,2013-03-10 02:17:00,
2013-03-10 04:18:00,62.8,44.4,30.09,ENE,68,0.0,0.0,51,0.00,,---,0.00,VWS V14.01,2013-03-10 02:18:00,
2013-03-10 04:19:00,62.8,44.4,30.09,ENE,68,0.0,0.0,51,0.00,,---,0.00,VWS V14.01,2013-03-10 02:19:00,
2013-03-10 04:20:00,62.8,44.4,30.09,ENE,68,0.0,0.0,51,0.00,,---,0.00,VWS V14.01,2013-03-10 02:20:00,
2013-03-10 04:21:00,62.8,44.4,30.09,ENE,68,0.0,0.0,51,0.00,,---,0.00,VWS V14.01,2013-03-10 02:21:00,
2013-03-10 04:22:00,62.8,44.4,30.09,ESE,112,0.0,0.0,51,0.00,,---,0.00,VWS V14.01,2013-03-10 02:22:00,
2013-03-10 04:23:00,62.8,44.4,30.09,NNE,22,0.0,0.0,51,0.00,,---,0.00,VWS V14.01,2013-03-10 02:23:00,
2013-03-10 04:24:00,62.8,44.4,30.09,ESE,112,0.0,0.0,51,0.00,,---,0.00,VWS V14.01,2013-03-10 02:24:00,
2013-03-10 04:25:00,62.8,43.9,30.09,ESE,112,0.0,0.0,50,0.00,,---,0.00,VWS V14.01,2013-03-10 02:25:00,
2013-03-10 04:26:00,62.8,43.9,30.09,ENE,68,0.0,0.0,50,0.00,,---,0.00,VWS V14.01,2013-03-10 02:26:00,
2013-03-10 04:27:00,62.8,43.9,30.09,ENE,68,0.0,0.0,50,0.00,,---,0.00,VWS V14.01,2013-03-10 02:27:00,
2013-03-10 04:28:00,62.8,43.9,30.09,ENE,68,0.0,0.0,50,0.00,,---,0.00,VWS V14.01,2013-03-10 02:28:00,
2013-03-10 04:29:00,62.8,43.9,30.09,ENE,68,0.0,0.0,50,0.00,,---,0.00,VWS V14.01,2013-03-10 02:29:00,
2013-03-10 04:30:00,62.8,43.9,30.09,NE,45,0.0,0.0,50,0.00,,---,0.00,VWS V14.01,2013-03-10 02:30:00,
2013-03-10 04:31:00,62.8,43.9,30.09,ENE,68,0.0,0.0,50,0.00,,---,0.00,VWS V14.01,2013-03-10 02:31:00,
2013-03-10 04:32:00,62.8,43.9,30.09,ENE,68,0.0,0.0,50,0.00,,---,0.00,VWS V14.01,2013-03-10 02:32:00,
2013-03-10 04:33:00,62.8,44.4,30.09,East,90,0.0,0.0,51,0.00,,---,0.00,VWS V14.01,2013-03-10 02:33:00,
2013-03-10 04:34:00,62.8,44.4,30.09,ENE,68,0.0,0.0,51,0.00,,---,0.00,VWS V14.01,2013-03-10 02:34:00,
2013-03-10 04:35:00,62.8,44.4,30.09,ENE,68,0.0,0.0,51,0.00,,---,0.00,VWS V14.01,2013-03-10 02:35:00,
2013-03-10 04:36:00,62.8,44.4,30.09,East,90,0.0,0.0,51,0.00,,---,0.00,VWS V14.01,2013-03-10 02:36:00,
2013-03-10 04:37:00,62.8,44.9,30.09,ENE,68,0.0,0.0,52,0.00,,---,0.00,VWS V14.01,2013-03-10 02:37:00,
2013-03-10 04:38:00,62.8,44.9,30.09,ENE,68,0.0,0.0,52,0.00,,---,0.00,VWS V14.01,2013-03-10 02:38:00,
2013-03-10 04:39:00,62.8,44.9,30.09,ENE,68,0.0,0.0,52,0.00,,---,0.00,VWS V14.01,2013-03-10 02:39:00,
2013-03-10 04:40:00,62.8,44.9,30.09,ENE,68,0.0,0.0,52,0.00,,---,0.00,VWS V14.01,2013-03-10 02:40:00,
2013-03-10 04:41:00,62.8,44.9,30.09,ENE,68,0.0,0.0,52,0.00,,---,0.00,VWS V14.01,2013-03-10 02:41:00,
2013-03-10 04:42:00,62.8,44.9,30.09,ESE,112,0.0,0.0,52,0.00,,---,0.00,VWS V14.01,2013-03-10 02:42:00,
2013-03-10 04:43:00,62.8,44.9,30.09,ENE,68,0.0,0.0,52,0.00,,---,0.00,VWS V14.01,2013-03-10 02:43:00,
2013-03-10 04:44:00,62.8,44.9,30.09,ESE,112,0.0,0.0,52,0.00,,---,0.00,VWS V14.01,2013-03-10 02:44:00,
2013-03-10 04:45:00,62.8,44.9,30.09,ENE,68,0.0,0.0,52,0.00,,---,0.00,VWS V14.01,2013-03-10 02:45:00,
2013-03-10 04:46:00,62.8,45.4,30.09,ENE,68,0.0,0.0,53,0.00,,---,0.00,VWS V14.01,2013-03-10 02:46:00,
2013-03-10 04:47:00,62.8,45.4,30.09,ENE,68,0.0,0.0,53,0.00,,---,0.00,VWS V14.01,2013-03-10 02:47:00,
2013-03-10 04:48:00,62.8,45.4,30.09,ENE,68,0.0,0.0,53,0.00,,---,0.00,VWS V14.01,2013-03-10 02:48:00,
2013-03-10 04:49:00,62.8,45.4,30.09,ENE,68,0.0,0.0,53,0.00,,---,0.00,VWS V14.01,2013-03-10 02:49:00,
2013-03-10 04:50:00,62.8,45.4,30.09,ESE,112,0.0,0.0,53,0.00,,---,0.00,VWS V14.01,2013-03-10 02:50:00,
2013-03-10 04:51:00,62.8,45.4,30.09,East,90,0.0,0.0,53,0.00,,---,0.00,VWS V14.01,2013-03-10 02:51:00,
2013-03-10 04:52:00,62.8,45.9,30.09,ENE,68,0.0,0.0,54,0.00,,---,0.00,VWS V14.01,2013-03-10 02:52:00,
2013-03-10 04:53:00,62.8,45.9,30.09,ENE,68,0.0,0.0,54,0.00,,---,0.00,VWS V14.01,2013-03-10 02:53:00,
2013-03-10 04:54:00,62.8,45.9,30.09,ESE,112,0.0,0.0,54,0.00,,---,0.00,VWS V14.01,2013-03-10 02:54:00,
2013-03-10 04:55:00,62.8,45.9,30.09,ESE,112,0.0,0.0,54,0.00,,---,0.00,VWS V14.01,2013-03-10 02:55:00,
2013-03-10 04:56:00,62.8,45.4,30.09,East,90,0.0,0.0,53,0.00,,---,0.00,VWS V14.01,2013-03-10 02:56:00,
2013-03-10 04:57:00,62.8,45.4,30.09,ENE,68,0.0,0.0,53,0.00,,---,0.00,VWS V14.01,2013-03-10 02:57:00,
2013-03-10 04:58:00,63.0,45.6,30.09,East,90,2.9,2.9,53,0.00,,---,0.00,VWS V14.01,2013-03-10 02:58:00,
2013-03-10 04:59:00,63.0,45.6,30.09,ESE,112,0.0,2.9,53,0.00,,---,0.00,VWS V14.01,2013-03-10 02:59:00,
2013-03-10 05:00:00,63.0,45.6,30.09,East,90,0.0,0.0,53,0.00,,---,0.00,VWS V14.01,2013-03-10 03:00:00,
2013-03-10 05:01:00,63.0,46.1,30.09,ESE,112,0.0,0.0,54,0.00,,---,0.00,VWS V14.01,2013-03-10 03:01:00,
2013-03-10 05:02:00,63.0,46.1,30.09,SSW,202,0.0,0.0,54,0.00,,---,0.00,VWS V14.01,2013-03-10 03:02:00,
2013-03-10 05:03:00,63.0,46.1,30.09,ENE,68,0.0,0.0,54,0.00,,---,0.00,VWS V14.01,2013-03-10 03:03:00,
2013-03-10 05:04:00,63.0,46.1,30.09,East,90,0.0,0.0,54,0.00,,---,0.00,VWS V14.01,2013-03-10 03:04:00,
2013-03-10 05:05:00,63.0,46.1,30.09,ESE,112,0.0,0.0,54,0.00,,---,0.00,VWS V14.01,2013-03-10 03:05:00,
2013-03-10 05:06:00,62.8,45.9,30.09,ESE,112,0.0,0.0,54,0.00,,---,0.00,VWS V14.01,2013-03-10 03:06:00,
2013-03-10 05:07:00,62.8,45.9,30.09,ESE,112,0.0,0.0,54,0.00,,---,0.00,VWS V14.01,2013-03-10 03:07:00,
2013-03-10 05:08:00,62.8,46.4,30.09,ESE,112,0.0,0.0,55,0.00,,---,0.00,VWS V14.01,2013-03-10 03:08:00,
2013-03-10 05:09:00,62.8,46.4,30.09,ESE,112,0.0,0.9,55,0.00,,---,0.00,VWS V14.01,2013-03-10 03:09:00,
2013-03-10 05:10:00,62.8,46.4,30.09,ESE,112,0.0,0.9,55,0.00,,---,0.00,VWS V14.01,2013-03-10 03:10:00,
2013-03-10 05:11:00,62.8,46.4,30.09,ENE,68,0.0,2.5,55,0.00,,---,0.00,VWS V14.01,2013-03-10 03:11:00,
2013-03-10 05:12:00,62.8,46.4,30.09,ENE,68,0.0,2.5,55,0.00,,---,0.00,VWS V14.01,2013-03-10 03:12:00,
2013-03-10 05:13:00,62.8,46.9,30.09,East,90,0.0,0.0,56,0.00,,---,0.00,VWS V14.01,2013-03-10 03:13:00,
2013-03-10 05:14:00,62.8,46.9,30.09,East,90,0.0,0.0,56,0.00,,---,0.00,VWS V14.01,2013-03-10 03:14:00,
2013-03-10 05:15:00,63.0,47.0,30.09,East,90,0.0,0.0,56,0.00,,---,0.00,VWS V14.01,2013-03-10 03:15:00,
2013-03-10 05:16:00,63.0,47.0,30.09,ESE,112,0.0,0.0,56,0.00,,---,0.00,VWS V14.01,2013-03-10 03:16:00,
2013-03-10 05:17:00,63.0,47.0,30.09,ESE,112,0.0,0.0,56,0.00,,---,0.00,VWS V14.01,2013-03-10 03:17:00,
2013-03-10 05:18:00,63.0,47.0,30.09,East,90,0.0,0.0,56,0.00,,---,0.00,VWS V14.01,2013-03-10 03:18:00,
2013-03-10 05:19:00,63.0,46.6,30.09,East,90,0.0,0.0,55,0.00,,---,0.00,VWS V14.01,2013-03-10 03:19:00,
2013-03-10 05:20:00,63.0,46.6,30.09,ENE,68,0.0,0.0,55,0.00,,---,0.00,VWS V14.01,2013-03-10 03:20:00,
2013-03-10 05:21:00,63.0,46.6,30.09,ENE,68,0.0,0.0,55,0.00,,---,0.00,VWS V14.01,2013-03-10 03:21:00,
2013-03-10 05:22:00,62.8,46.4,30.09,ESE,112,0.0,0.0,55,0.00,,---,0.00,VWS V14.01,2013-03-10 03:22:00,
2013-03-10 05:23:00,62.8,46.4,30.09,ENE,68,0.0,0.0,55,0.00,,---,0.00,VWS V14.01,2013-03-10 03:23:00,
2013-03-10 05:24:00,62.8,46.4,30.09,ENE,68,0.0,0.0,55,0.00,,---,0.00,VWS V14.01,2013-03-10 03:24:00,
2013-03-10 05:25:00,63.0,46.6,30.09,ESE,112,0.0,0.0,55,0.00,,---,0.00,VWS V14.01,2013-03-10 03:25:00,
2013-03-10 05:26:00,63.0,46.6,30.09,ESE,112,0.0,0.0,55,0.00,,---,0.00,VWS V14.01,2013-03-10 03:26:00,
2013-03-10 05:27:00,63.0,46.6,30.09,East,90,0.0,0.0,55,0.00,,---,0.00,VWS V14.01,2013-03-10 03:27:00,
2013-03-10 05:28:00,63.0,46.6,30.09,East,90,0.0,0.0,55,0.00,,---,0.00,VWS V14.01,2013-03-10 03:28:00,
2013-03-10 05:29:00,63.0,46.6,30.09,ENE,68,0.0,0.0,55,0.00,,---,0.00,VWS V14.01,2013-03-10 03:29:00,
2013-03-10 05:30:00,63.0,46.6,30.09,East,90,0.0,0.0,55,0.00,,---,0.00,VWS V14.01,2013-03-10 03:30:00,
2013-03-10 05:31:00,63.0,46.6,30.09,East,90,0.0,0.0,55,0.00,,---,0.00,VWS V14.01,2013-03-10 03:31:00,
2013-03-10 05:32:00,63.0,46.6,30.09,East,90,0.0,0.0,55,0.00,,---,0.00,VWS V14.01,2013-03-10 03:32:00,
2013-03-10 05:33:00,63.0,46.6,30.09,East,90,0.0,0.0,55,0.00,,---,0.00,VWS V14.01,2013-03-10 03:33:00,
2013-03-10 05:34:00,63.0,46.6,30.09,East,90,0.0,0.0,55,0.00,,---,0.00,VWS V14.01,2013-03-10 03:34:00,
2013-03-10 05:35:00,63.0,46.6,30.09,East,90,0.0,0.0,55,0.00,,---,0.00,VWS V14.01,2013-03-10 03:35:00,
2013-03-10 05:36:00,63.0,46.6,30.09,East,90,0.0,0.0,55,0.00,,---,0.00,VWS V14.01,2013-03-10 03:36:00,
2013-03-10 05:37:00,63.0,46.6,30.09,East,90,0.0,0.0,55,0.00,,---,0.00,VWS V14.01,2013-03-10 03:37:00,
2013-03-10 05:38:00,63.0,46.6,30.09,East,90,0.0,0.0,55,0.00,,---,0.00,VWS V14.01,2013-03-10 03:38:00,
2013-03-10 05:39:00,63.0,47.0,30.09,East,90,0.0,0.0,56,0.00,,---,0.00,VWS V14.01,2013-03-10 03:39:00,
2013-03-10 05:40:00,63.0,47.0,30.09,East,90,0.0,0.0,56,0.00,,---,0.00,VWS V14.01,2013-03-10 03:40:00,
2013-03-10 05:41:00,63.1,47.7,30.09,East,90,0.0,0.0,57,0.00,,---,0.00,VWS V14.01,2013-03-10 03:41:00,
2013-03-10 05:42:00,63.1,47.7,30.09,East,90,0.0,0.0,57,0.00,,---,0.00,VWS V14.01,2013-03-10 03:42:00,
2013-03-10 05:43:00,63.1,47.7,30.09,East,90,0.0,0.0,57,0.00,,---,0.00,VWS V14.01,2013-03-10 03:43:00,
2013-03-10 05:44:00,63.1,47.7,30.09,ESE,112,0.0,0.0,57,0.00,,---,0.00,VWS V14.01,2013-03-10 03:44:00,
2013-03-10 05:45:00,63.1,47.7,30.09,ESE,112,0.0,0.0,57,0.00,,---,0.00,VWS V14.01,2013-03-10 03:45:00,
2013-03-10 05:46:00,63.1,47.7,30.09,ESE,112,0.0,0.0,57,0.00,,---,0.00,VWS V14.01,2013-03-10 03:46:00,
2013-03-10 05:47:00,63.1,47.7,30.09,ESE,112,0.0,0.0,57,0.00,,---,0.00,VWS V14.01,2013-03-10 03:47:00,
2013-03-10 05:48:00,63.0,47.5,30.09,ESE,112,0.0,0.0,57,0.00,,---,0.00,VWS V14.01,2013-03-10 03:48:00,
2013-03-10 05:49:00,63.0,46.6,30.09,ESE,112,0.0,0.0,55,0.00,,---,0.00,VWS V14.01,2013-03-10 03:49:00,
2013-03-10 05:50:00,63.0,46.6,30.09,ESE,112,0.0,0.0,55,0.00,,---,0.00,VWS V14.01,2013-03-10 03:50:00,
2013-03-10 05:51:00,63.0,46.6,30.09,ESE,112,0.0,0.0,55,0.00,,---,0.00,VWS V14.01,2013-03-10 03:51:00,
2013-03-10 05:52:00,63.0,46.6,30.09,ESE,112,0.0,0.0,55,0.00,,---,0.00,VWS V14.01,2013-03-10 03:52:00,
2013-03-10 05:53:00,63.1,46.2,30.09,ESE,112,0.0,0.0,54,0.00,,---,0.00,VWS V14.01,2013-03-10 03:53:00,
2013-03-10 05:54:00,63.1,46.2,30.09,ESE,112,0.0,0.0,54,0.00,,---,0.00,VWS V14.01,2013-03-10 03:54:00,
2013-03-10 05:55:00,63.1,46.2,30.09,ESE,112,0.0,0.0,54,0.00,,---,0.00,VWS V14.01,2013-03-10 03:55:00,
2013-03-10 05:56:00,63.1,45.8,30.09,ESE,112,0.0,0.0,53,0.00,,---,0.00,VWS V14.01,2013-03-10 03:56:00,
2013-03-10 05:57:00,63.1,45.8,30.09,ESE,112,0.0,0.0,53,0.00,,---,0.00,VWS V14.01,2013-03-10 03:57:00,
2013-03-10 05:58:00,63.1,45.8,30.09,ESE,112,0.0,0.0,53,0.00,,---,0.00,VWS V14.01,2013-03-10 03:58:00,
2013-03-10 05:59:00,63.1,45.8,30.09,ESE,112,0.0,0.0,53,0.00,,---,0.00,VWS V14.01,2013-03-10 03:59:00,
2013-03-10 06:00:00,63.1,45.8,30.09,ESE,112,0.0,0.0,53,0.00,,---,0.00,VWS V14.01,2013-03-10 04:00:00,
2013-03-10 06:01:00,63.1,45.2,30.09,ENE,68,0.0,0.0,52,0.00,,---,0.00,VWS V14.01,2013-03-10 04:01:00,
2013-03-10 06:02:00,63.1,45.2,30.09,ENE,68,0.0,0.0,52,0.00,,---,0.00,VWS V14.01,2013-03-10 04:02:00,
2013-03-10 06:03:00,63.1,45.2,30.09,ENE,68,0.0,0.0,52,0.00,,---,0.00,VWS V14.01,2013-03-10 04:03:00,
2013-03-10 06:04:00,63.1,45.2,30.09,ENE,68,0.0,0.0,52,0.00,,---,0.00,VWS V14.01,2013-03-10 04:04:00,
2013-03-10 06:05:00,63.1,45.2,30.09,ENE,68,0.0,0.0,52,0.00,,---,0.00,VWS V14.01,2013-03-10 04:05:00,
2013-03-10 06:06:00,63.0,44.6,30.09,ENE,68,0.0,0.0,51,0.00,,---,0.00,VWS V14.01,2013-03-10 04:06:00,
2013-03-10 06:07:00,63.1,44.7,30.09,ENE,68,0.0,0.0,51,0.00,,---,0.00,VWS V14.01,2013-03-10 04:07:00,
2013-03-10 06:08:00,63.1,44.7,30.09,ESE,112,0.0,0.0,51,0.00,,---,0.00,VWS V14.01,2013-03-10 04:08:00,
2013-03-10 06:09:00,63.1,44.7,30.09,ENE,68,0.0,0.0,51,0.00,,---,0.00,VWS V14.01,2013-03-10 04:09:00,
2013-03-10 06:10:00,63.1,44.7,30.09,ESE,112,0.0,0.0,51,0.00,,---,0.00,VWS V14.01,2013-03-10 04:10:00,
2013-03-10 06:11:00,63.1,44.7,30.09,ENE,68,0.0,0.0,51,0.00,,---,0.00,VWS V14.01,2013-03-10 04:11:00,
2013-03-10 06:12:00,63.1,44.7,30.09,ESE,112,0.0,0.0,51,0.00,,---,0.00,VWS V14.01,2013-03-10 04:12:00,
2013-03-10 06:13:00,63.1,44.7,30.09,ESE,112,0.0,0.0,51,0.00,,---,0.00,VWS V14.01,2013-03-10 04:13:00,
2013-03-10 06:14:00,63.1,45.2,30.09,ENE,68,0.0,0.0,52,0.00,,---,0.00,VWS V14.01,2013-03-10 04:14:00,
2013-03-10 06:15:00,63.1,45.2,30.09,NNE,22,0.0,0.0,52,0.00,,---,0.00,VWS V14.01,2013-03-10 04:15:00,
2013-03-10 06:16:00,63.1,45.2,30.09,ESE,112,0.0,0.0,52,0.00,,---,0.00,VWS V14.01,2013-03-10 04:16:00,
2013-03-10 06:17:00,63.0,45.1,30.09,ENE,68,0.0,0.0,52,0.00,,---,0.00,VWS V14.01,2013-03-10 04:17:00,
2013-03-10 06:18:00,63.0,45.1,30.09,ENE,68,0.0,0.0,52,0.00,,---,0.00,VWS V14.01,2013-03-10 04:18:00,
2013-03-10 06:19:00,63.0,45.6,30.09,East,90,0.0,0.0,53,0.00,,---,0.00,VWS V14.01,2013-03-10 04:19:00,
2013-03-10 06:20:00,63.0,45.6,30.09,East,90,0.0,0.0,53,0.00,,---,0.00,VWS V14.01,2013-03-10 04:20:00,
2013-03-10 06:21:00,63.0,46.1,30.09,ENE,68,0.0,0.0,54,0.00,,---,0.00,VWS V14.01,2013-03-10 04:21:00,
2013-03-10 06:22:00,63.0,46.1,30.09,ENE,68,0.0,0.0,54,0.00,,---,0.00,VWS V14.01,2013-03-10 04:22:00,
2013-03-10 06:23:00,63.0,46.1,30.09,NE,45,0.0,0.0,54,0.00,,---,0.00,VWS V14.01,2013-03-10 04:23:00,
2013-03-10 06:24:00,63.0,46.1,30.09,East,90,0.0,0.0,54,0.00,,---,0.00,VWS V14.01,2013-03-10 04:24:00,
2013-03-10 06:25:00,63.0,46.1,30.09,ENE,68,0.0,0.0,54,0.00,,---,0.00,VWS V14.01,2013-03-10 04:25:00,
2013-03-10 06:26:00,63.0,46.1,30.09,ENE,68,0.0,0.0,54,0.00,,---,0.00,VWS V14.01,2013-03-10 04:26:00,
2013-03-10 06:27:00,63.0,46.6,30.09,ESE,112,0.0,0.0,55,0.00,,---,0.00,VWS V14.01,2013-03-10 04:27:00,
2013-03-10 06:28:00,63.0,46.6,30.09,ENE,68,0.0,0.0,55,0.00,,---,0.00,VWS V14.01,2013-03-10 04:28:00,
2013-03-10 06:29:00,63.0,46.6,30.09,ENE,68,0.0,0.0,55,0.00,,---,0.00,VWS V14.01,2013-03-10 04:29:00,
2013-03-10 06:30:00,63.0,46.6,30.09,East,90,0.0,0.0,55,0.00,,---,0.00,VWS V14.01,2013-03-10 04:30:00,
2013-03-10 06:31:00,63.0,46.1,30.09,ENE,68,0.0,0.0,54,0.00,,---,0.00,VWS V14.01,2013-03-10 04:31:00,
2013-03-10 06:32:00,63.0,46.1,30.09,ENE,68,0.0,0.0,54,0.00,,---,0.00,VWS V14.01,2013-03-10 04:32:00,
2013-03-10 06:33:00,63.0,46.1,30.09,ENE,68,0.0,0.0,54,0.00,,---,0.00,VWS V14.01,2013-03-10 04:33:00,
2013-03-10 06:34:00,63.0,46.1,30.09,ENE,68,0.0,0.0,54,0.00,,---,0.00,VWS V14.01,2013-03-10 04:34:00,
2013-03-10 06:35:00,63.0,46.1,30.09,ESE,112,0.0,0.0,54,0.00,,---,0.00,VWS V14.01,2013-03-10 04:35:00,
2013-03-10 06:36:00,63.0,46.1,30.09,ENE,68,0.0,0.0,54,0.00,,---,0.00,VWS V14.01,2013-03-10 04:36:00,
2013-03-10 06:37:00,63.3,46.4,30.09,ESE,112,0.0,0.0,54,0.00,,---,0.00,VWS V14.01,2013-03-10 04:37:00,
2013-03-10 06:38:00,63.3,46.4,30.09,East,90,0.0,0.0,54,0.00,,---,0.00,VWS V14.01,2013-03-10 04:38:00,
2013-03-10 06:39:00,63.5,46.6,30.09,ENE,68,0.0,0.0,54,0.00,,---,0.00,VWS V14.01,2013-03-10 04:39:00,
2013-03-10 06:40:00,63.5,46.6,30.09,ESE,112,0.0,0.0,54,0.00,,---,0.00,VWS V14.01,2013-03-10 04:40:00,
2013-03-10 06:41:00,63.5,46.6,30.09,ESE,112,0.0,0.0,54,0.00,,---,0.00,VWS V14.01,2013-03-10 04:41:00,
2013-03-10 06:42:00,63.7,47.2,30.09,ESE,112,0.0,0.0,55,0.00,,---,0.00,VWS V14.01,2013-03-10 04:42:00,
2013-03-10 06:43:00,63.7,47.2,30.09,ENE,68,0.0,0.0,55,0.00,,---,0.00,VWS V14.01,2013-03-10 04:43:00,
2013-03-10 06:44:00,63.9,46.9,30.09,East,90,0.0,0.0,54,0.00,,---,0.00,VWS V14.01,2013-03-10 04:44:00,
2013-03-10 06:45:00,63.9,46.9,30.09,ESE,112,0.0,0.0,54,0.00,,---,0.00,VWS V14.01,2013-03-10 04:45:00,
2013-03-10 06:46:00,63.9,46.9,30.09,ENE,68,0.0,0.0,54,0.00,,---,0.00,VWS V14.01,2013-03-10 04:46:00,
2013-03-10 06:47:00,64.0,47.1,30.09,ENE,68,0.0,0.0,54,0.00,,---,0.00,VWS V14.01,2013-03-10 04:47:00,
2013-03-10 06:48:00,64.0,47.1,30.09,ENE,68,0.0,0.0,54,0.00,,---,0.00,VWS V14.01,2013-03-10 04:48:00,
2013-03-10 06:49:00,64.2,46.8,30.09,ESE,112,0.0,0.0,53,0.00,,---,0.00,VWS V14.01,2013-03-10 04:49:00,
2013-03-10 06:50:00,64.2,46.8,30.09,ESE,112,0.0,0.0,53,0.00,,---,0.00,VWS V14.01,2013-03-10 04:50:00,
2013-03-10 06:51:00,64.4,46.4,30.09,ENE,68,0.0,0.0,52,0.00,,---,0.00,VWS V14.01,2013-03-10 04:51:00,
2013-03-10 06:52:00,64.4,46.4,30.09,ENE,68,0.0,0.0,52,0.00,,---,0.00,VWS V14.01,2013-03-10 04:52:00,
2013-03-10 06:53:00,64.4,46.4,30.09,East,90,0.0,0.0,52,0.00,,---,0.00,VWS V14.01,2013-03-10 04:53:00,
2013-03-10 06:54:00,64.6,46.1,30.09,ESE,112,0.0,0.0,51,0.00,,---,0.00,VWS V14.01,2013-03-10 04:54:00,
2013-03-10 06:55:00,64.8,46.2,30.09,ESE,112,0.0,0.0,51,0.00,,---,0.00,VWS V14.01,2013-03-10 04:55:00,
2013-03-10 06:56:00,64.9,46.4,30.09,ENE,68,0.0,0.0,51,0.00,,---,0.00,VWS V14.01,2013-03-10 04:56:00,
2013-03-10 06:57:00,64.9,46.4,30.09,ENE,68,0.0,0.0,51,0.00,,---,0.00,VWS V14.01,2013-03-10 04:57:00,
2013-03-10 06:58:00,64.9,45.9,30.09,East,90,0.0,0.0,50,0.00,,---,0.00,VWS V14.01,2013-03-10 04:58:00,
2013-03-10 06:59:00,65.1,46.0,30.09,East,90,0.0,0.0,50,0.00,,---,0.00,VWS V14.01,2013-03-10 04:59:00,
2013-03-10 07:00:00,65.1,46.0,30.09,East,90,0.0,0.0,50,0.00,,---,0.00,VWS V14.01,2013-03-10 05:00:00,
2013-03-10 07:01:00,65.3,46.2,30.09,ENE,68,0.0,0.0,50,0.00,,---,0.00,VWS V14.01,2013-03-10 05:01:00,
2013-03-10 07:02:00,65.3,46.2,30.09,East,90,0.0,0.0,50,0.00,,---,0.00,VWS V14.01,2013-03-10 05:02:00,
2013-03-10 07:03:00,65.5,45.8,30.09,East,90,0.0,0.0,49,0.00,,---,0.00,VWS V14.01,2013-03-10 05:03:00,
2013-03-10 07:04:00,65.7,46.0,30.09,ENE,68,0.0,0.0,49,0.00,,---,0.00,VWS V14.01,2013-03-10 05:04:00,
2013-03-10 07:05:00,65.7,46.0,30.09,ESE,112,0.0,0.0,49,0.00,,---,0.00,VWS V14.01,2013-03-10 05:05:00,
2013-03-10 07:06:00,65.7,45.5,30.09,ESE,112,0.0,0.0,48,0.00,,---,0.00,VWS V14.01,2013-03-10 05:06:00,
2013-03-10 07:07:00,65.8,45.6,30.09,ESE,112,0.0,0.0,48,0.00,,---,0.00,VWS V14.01,2013-03-10 05:07:00,
2013-03-10 07:08:00,65.8,45.6,30.09,East,90,0.0,0.0,48,0.00,,---,0.00,VWS V14.01,2013-03-10 05:08:00,
2013-03-10 07:09:00,65.8,45.6,30.09,ESE,112,0.0,0.0,48,0.00,,---,0.00,VWS V14.01,2013-03-10 05:09:00,
2013-03-10 07:10:00,65.8,45.6,30.09,ESE,112,0.0,0.0,48,0.00,,---,0.00,VWS V14.01,2013-03-10 05:10:00,
2013-03-10 07:11:00,65.8,45.1,30.09,ENE,68,0.0,0.0,47,0.00,,---,0.00,VWS V14.01,2013-03-10 05:11:00,
2013-03-10 07:12:00,66.0,45.2,30.09,ENE,68,0.0,0.0,47,0.00,,---,0.00,VWS V14.01,2013-03-10 05:12:00,
2013-03-10 07:13:00,66.0,45.2,30.09,ENE,68,0.0,0.0,47,0.00,,---,0.00,VWS V14.01,2013-03-10 05:13:00,
2013-03-10 07:14:00,66.0,45.2,30.09,East,90,0.0,0.0,47,0.00,,---,0.00,VWS V14.01,2013-03-10 05:14:00,
2013-03-10 07:15:00,66.0,45.2,30.09,East,90,0.0,0.0,47,0.00,,---,0.00,VWS V14.01,2013-03-10 05:15:00,
2013-03-10 07:16:00,66.0,45.2,30.09,East,90,0.0,0.0,47,0.00,,---,0.00,VWS V14.01,2013-03-10 05:16:00,
2013-03-10 07:17:00,66.4,45.6,30.09,ESE,112,0.0,0.0,47,0.00,,---,0.00,VWS V14.01,2013-03-10 05:17:00,
2013-03-10 07:18:00,66.4,45.6,30.09,ENE,68,0.0,0.0,47,0.00,,---,0.00,VWS V14.01,2013-03-10 05:18:00,
2013-03-10 07:19:00,66.6,45.7,30.09,ENE,68,0.0,0.0,47,0.00,,---,0.00,VWS V14.01,2013-03-10 05:19:00,
2013-03-10 07:20:00,66.7,45.9,30.09,ESE,112,0.0,0.0,47,0.00,,---,0.00,VWS V14.01,2013-03-10 05:20:00,
2013-03-10 07:21:00,66.7,45.9,30.09,ENE,68,0.0,0.0,47,0.00,,---,0.00,VWS V14.01,2013-03-10 05:21:00,
2013-03-10 07:22:00,66.7,45.3,30.09,East,90,0.0,0.0,46,0.00,,---,0.00,VWS V14.01,2013-03-10 05:22:00,
2013-03-10 07:23:00,66.7,45.3,30.09,East,90,0.0,0.0,46,0.00,,---,0.00,VWS V14.01,2013-03-10 05:23:00,
2013-03-10 07:24:00,66.7,44.8,30.09,ESE,112,0.0,0.0,45,0.00,,---,0.00,VWS V14.01,2013-03-10 05:24:00,
2013-03-10 07:25:00,66.7,44.8,30.09,NE,45,0.0,0.0,45,0.00,,---,0.00,VWS V14.01,2013-03-10 05:25:00,
2013-03-10 07:26:00,66.7,44.8,30.09,ESE,112,0.0,0.0,45,0.00,,---,0.00,VWS V14.01,2013-03-10 05:26:00,
2013-03-10 07:27:00,66.9,44.9,30.09,ENE,68,0.0,0.0,45,0.00,,---,0.00,VWS V14.01,2013-03-10 05:27:00,
2013-03-10 07:29:00,67.1,45.1,30.09,ENE,68,0.0,0.0,45,0.00,,---,0.00,VWS V14.01,2013-03-10 05:29:00,
2013-03-10 07:30:00,67.1,45.1,30.09,ENE,68,0.0,0.0,45,0.00,,---,0.00,VWS V14.01,2013-03-10 05:30:00,
2013-03-10 07:31:00,67.1,45.1,30.09,ESE,112,0.0,0.0,45,0.00,,---,0.00,VWS V14.01,2013-03-10 05:31:00,
2013-03-10 07:32:00,67.1,44.5,30.09,East,90,0.0,0.0,44,0.00,,---,0.00,VWS V14.01,2013-03-10 05:32:00,
2013-03-10 07:33:00,67.1,44.5,30.09,ESE,112,0.0,0.0,44,0.00,,---,0.00,VWS V14.01,2013-03-10 05:33:00,
2013-03-10 07:34:00,67.5,44.8,30.09,ESE,112,0.0,0.0,44,0.00,,---,0.00,VWS V14.01,2013-03-10 05:34:00,
2013-03-10 07:35:00,67.5,44.2,30.09,ESE,112,0.0,0.0,43,0.00,,---,0.00,VWS V14.01,2013-03-10 05:35:00,
2013-03-10 07:36:00,67.5,44.2,30.09,ESE,112,0.0,0.0,43,0.00,,---,0.00,VWS V14.01,2013-03-10 05:36:00,
2013-03-10 07:37:00,67.5,44.2,30.09,East,90,0.0,0.0,43,0.00,,---,0.00,VWS V14.01,2013-03-10 05:37:00,
2013-03-10 07:38:00,67.5,44.2,30.09,East,90,0.0,0.0,43,0.00,,---,0.00,VWS V14.01,2013-03-10 05:38:00,
2013-03-10 07:39:00,67.5,44.2,30.09,East,90,0.0,0.0,43,0.00,,---,0.00,VWS V14.01,2013-03-10 05:39:00,
2013-03-10 07:40:00,67.5,44.2,30.09,ESE,112,0.0,0.0,43,0.00,,---,0.00,VWS V14.01,2013-03-10 05:40:00,
2013-03-10 07:41:00,67.6,44.4,30.09,East,90,0.0,0.0,43,0.00,,---,0.00,VWS V14.01,2013-03-10 05:41:00,
2013-03-10 07:42:00,67.6,44.4,30.09,East,90,0.0,0.0,43,0.00,,---,0.00,VWS V14.01,2013-03-10 05:42:00,
2013-03-10 07:43:00,67.6,44.4,30.09,East,90,0.0,0.0,43,0.00,,---,0.00,VWS V14.01,2013-03-10 05:43:00,
2013-03-10 07:44:00,67.6,44.4,30.09,East,90,0.0,0.0,43,0.00,,---,0.00,VWS V14.01,2013-03-10 05:44:00,
2013-03-10 07:45:00,67.8,44.5,30.09,ESE,112,0.0,0.0,43,0.00,,---,0.00,VWS V14.01,2013-03-10 05:45:00,
2013-03-10 07:46:00,67.8,44.5,30.09,ESE,112,0.0,0.0,43,0.00,,---,0.00,VWS V14.01,2013-03-10 05:46:00,
2013-03-10 07:47:00,68.0,44.7,30.09,ENE,68,0.0,0.0,43,0.00,,---,0.00,VWS V14.01,2013-03-10 05:47:00,
2013-03-10 07:48:00,68.0,44.1,30.09,ENE,68,0.0,0.0,42,0.00,,---,0.00,VWS V14.01,2013-03-10 05:48:00,
2013-03-10 07:49:00,68.0,43.5,30.09,ESE,112,0.0,0.0,41,0.00,,---,0.00,VWS V14.01,2013-03-10 05:49:00,
2013-03-10 07:50:00,68.0,43.5,30.09,ESE,112,0.0,0.0,41,0.00,,---,0.00,VWS V14.01,2013-03-10 05:50:00,
2013-03-10 07:51:00,68.2,43.0,30.09,East,90,0.0,0.0,40,0.00,,---,0.00,VWS V14.01,2013-03-10 05:51:00,
2013-03-10 07:52:00,68.2,43.0,30.09,East,90,0.0,0.0,40,0.00,,---,0.00,VWS V14.01,2013-03-10 05:52:00,
2013-03-10 07:53:00,68.2,43.0,30.09,ESE,112,0.0,0.0,40,0.00,,---,0.00,VWS V14.01,2013-03-10 05:53:00,
2013-03-10 07:54:00,68.2,43.0,30.09,East,90,0.0,0.0,40,0.00,,---,0.00,VWS V14.01,2013-03-10 05:54:00,
2013-03-10 07:55:00,68.2,42.3,30.12,ESE,112,0.0,0.0,39,0.00,,---,0.00,VWS V14.01,2013-03-10 05:55:00,
2013-03-10 07:56:00,68.0,42.1,30.12,ESE,112,0.0,0.0,39,0.00,,---,0.00,VWS V14.01,2013-03-10 05:56:00,
2013-03-10 07:57:00,68.0,42.1,30.12,ESE,112,0.0,0.0,39,0.00,,---,0.00,VWS V14.01,2013-03-10 05:57:00,
2013-03-10 07:58:00,68.2,42.3,30.12,ENE,68,0.0,0.0,39,0.00,,---,0.00,VWS V14.01,2013-03-10 05:58:00,
2013-03-10 07:59:00,68.4,42.5,30.12,ESE,112,0.0,0.0,39,0.00,,---,0.00,VWS V14.01,2013-03-10 05:59:00,
2013-03-10 08:00:00,68.5,42.6,30.12,ESE,112,0.0,0.0,39,0.00,,---,0.00,VWS V14.01,2013-03-10 06:00:00,
2013-03-10 08:01:00,68.7,42.8,30.12,ESE,112,0.0,0.0,39,0.00,,---,0.00,VWS V14.01,2013-03-10 06:01:00,
2013-03-10 08:02:00,68.5,42.6,30.12,ESE,112,0.0,0.0,39,0.00,,---,0.00,VWS V14.01,2013-03-10 06:02:00,
2013-03-10 08:03:00,68.5,42.0,30.12,ESE,112,0.0,0.0,38,0.00,,---,0.00,VWS V14.01,2013-03-10 06:03:00,
2013-03-10 08:04:00,68.7,42.8,30.12,NNE,22,0.0,0.0,39,0.00,,---,0.00,VWS V14.01,2013-03-10 06:04:00,
2013-03-10 08:05:00,68.7,42.1,30.12,ESE,112,0.0,0.0,38,0.00,,---,0.00,VWS V14.01,2013-03-10 06:05:00,
2013-03-10 08:06:00,68.7,42.1,30.12,ENE,68,0.0,0.0,38,0.00,,---,0.00,VWS V14.01,2013-03-10 06:06:00,
2013-03-10 08:07:00,68.7,42.1,30.12,ESE,112,0.0,0.0,38,0.00,,---,0.00,VWS V14.01,2013-03-10 06:07:00,
2013-03-10 08:08:00,68.7,42.1,30.12,East,90,0.0,0.0,38,0.00,,---,0.00,VWS V14.01,2013-03-10 06:08:00,
2013-03-10 08:09:00,68.9,42.3,30.12,ESE,112,0.0,0.0,38,0.00,,---,0.00,VWS V14.01,2013-03-10 06:09:00,
2013-03-10 08:10:00,68.9,42.3,30.12,ENE,68,0.0,0.0,38,0.00,,---,0.00,VWS V14.01,2013-03-10 06:10:00,
2013-03-10 08:11:00,68.9,43.0,30.12,ESE,112,0.0,0.0,39,0.00,,---,0.00,VWS V14.01,2013-03-10 06:11:00,
2013-03-10 08:12:00,68.9,43.0,30.12,ESE,112,0.0,0.0,39,0.00,,---,0.00,VWS V14.01,2013-03-10 06:12:00,
2013-03-10 08:13:00,69.1,42.4,30.12,SE,135,0.0,0.0,38,0.00,,---,0.00,VWS V14.01,2013-03-10 06:13:00,
2013-03-10 08:14:00,69.1,42.4,30.12,ENE,68,0.0,0.0,38,0.00,,---,0.00,VWS V14.01,2013-03-10 06:14:00,
2013-03-10 08:15:00,69.4,43.4,30.12,East,90,0.0,0.0,39,0.00,,---,0.00,VWS V14.01,2013-03-10 06:15:00,
2013-03-10 08:16:00,69.4,43.4,30.12,ESE,112,0.0,0.0,39,0.00,,---,0.00,VWS V14.01,2013-03-10 06:16:00,
2013-03-10 08:17:00,69.4,42.8,30.12,ESE,112,0.0,0.0,38,0.00,,---,0.00,VWS V14.01,2013-03-10 06:17:00,
2013-03-10 08:18:00,69.4,42.8,30.12,ESE,112,0.0,0.0,38,0.00,,---,0.00,VWS V14.01,2013-03-10 06:18:00,
2013-03-10 08:19:00,69.4,42.8,30.12,East,90,0.0,0.0,38,0.00,,---,0.00,VWS V14.01,2013-03-10 06:19:00,
2013-03-10 08:21:00,69.4,42.8,30.12,ESE,112,0.0,0.0,38,0.00,,---,0.00,VWS V14.01,2013-03-10 06:21:00,
2013-03-10 08:22:00,69.4,42.8,30.12,East,90,0.0,0.0,38,0.00,,---,0.00,VWS V14.01,2013-03-10 06:22:00,
2013-03-10 08:23:00,69.4,43.4,30.12,ESE,112,0.0,0.0,39,0.00,,---,0.00,VWS V14.01,2013-03-10 06:23:00,
2013-03-10 08:24:00,69.4,43.4,30.12,ESE,112,0.0,0.0,39,0.00,,---,0.00,VWS V14.01,2013-03-10 06:24:00,
2013-03-10 08:25:00,69.6,44.2,30.12,ENE,68,0.0,0.0,40,0.00,,---,0.00,VWS V14.01,2013-03-10 06:25:00,
2013-03-10 08:26:00,69.8,43.8,30.12,ESE,112,0.0,0.0,39,0.00,,---,0.00,VWS V14.01,2013-03-10 06:26:00,
2013-03-10 08:27:00,69.8,43.1,30.12,ESE,112,0.0,0.0,38,0.00,,---,0.00,VWS V14.01,2013-03-10 06:27:00,
2013-03-10 08:28:00,69.8,43.1,30.12,ESE,112,0.0,0.0,38,0.00,,---,0.00,VWS V14.01,2013-03-10 06:28:00,
2013-03-10 08:29:00,69.6,42.9,30.12,East,90,0.0,0.0,38,0.00,,---,0.00,VWS V14.01,2013-03-10 06:29:00,
2013-03-10 08:30:00,69.6,42.9,30.12,ESE,112,0.0,0.0,38,0.00,,---,0.00,VWS V14.01,2013-03-10 06:30:00,
2013-03-10 08:31:00,69.8,43.1,30.12,East,90,0.0,0.0,38,0.00,,---,0.00,VWS V14.01,2013-03-10 06:31:00,
2013-03-10 08:32:00,69.8,43.1,30.12,ESE,112,0.0,0.0,38,0.00,,---,0.00,VWS V14.01,2013-03-10 06:32:00,
2013-03-10 08:33:00,69.8,43.1,30.12,ESE,112,0.0,0.0,38,0.00,,---,0.00,VWS V14.01,2013-03-10 06:33:00,
2013-03-10 08:34:00,69.8,43.1,30.12,ESE,112,0.0,0.0,38,0.00,,---,0.00,VWS V14.01,2013-03-10 06:34:00,
2013-03-10 08:35:00,69.8,42.4,30.12,ESE,112,0.0,0.0,37,0.00,,---,0.00,VWS V14.01,2013-03-10 06:35:00,
2013-03-10 08:36:00,70.0,42.5,30.12,ESE,112,0.0,0.0,37,0.00,,---,0.00,VWS V14.01,2013-03-10 06:36:00,
2013-03-10 08:37:00,70.0,43.2,30.12,ESE,112,0.0,0.0,38,0.00,,---,0.00,VWS V14.01,2013-03-10 06:37:00,
2013-03-10 08:38:00,70.0,43.2,30.12,SE,135,0.0,0.0,38,0.00,,---,0.00,VWS V14.01,2013-03-10 06:38:00,
2013-03-10 08:39:00,70.0,43.2,30.12,East,90,0.0,0.0,38,0.00,,---,0.00,VWS V14.01,2013-03-10 06:39:00,
2013-03-10 08:40:00,70.2,43.4,30.12,ENE,68,0.0,0.0,38,0.00,,---,0.00,VWS V14.01,2013-03-10 06:40:00,
2013-03-10 08:41:00,70.3,43.5,30.12,East,90,0.0,0.0,38,0.00,,---,0.00,VWS V14.01,2013-03-10 06:41:00,
2013-03-10 08:42:00,70.3,42.9,30.12,ESE,112,0.0,0.0,37,0.00,,---,0.00,VWS V14.01,2013-03-10 06:42:00,
2013-03-10 08:43:00,70.3,42.9,30.12,ESE,112,0.0,0.0,37,0.00,,---,0.00,VWS V14.01,2013-03-10 06:43:00,
2013-03-10 08:44:00,70.5,43.0,30.12,ENE,68,0.0,0.0,37,0.00,,---,0.00,VWS V14.01,2013-03-10 06:44:00,
2013-03-10 08:45:00,70.5,43.0,30.12,ENE,68,0.0,0.0,37,0.00,,---,0.00,VWS V14.01,2013-03-10 06:45:00,
2013-03-10 08:46:00,70.3,42.9,30.12,ESE,112,0.0,0.0,37,0.00,,---,0.00,VWS V14.01,2013-03-10 06:46:00,
2013-03-10 08:47:00,70.3,42.9,30.12,ESE,112,0.0,0.0,37,0.00,,---,0.00,VWS V14.01,2013-03-10 06:47:00,
2013-03-10 08:48:00,70.5,42.3,30.12,ESE,112,0.0,0.0,36,0.00,,---,0.00,VWS V14.01,2013-03-10 06:48:00,
2013-03-10 08:49:00,70.7,43.2,30.12,ESE,112,0.0,0.0,37,0.00,,---,0.00,VWS V14.01,2013-03-10 06:49:00,
2013-03-10 08:50:00,70.5,42.3,30.12,SE,135,0.0,0.0,36,0.00,,---,0.00,VWS V14.01,2013-03-10 06:50:00,
2013-03-10 08:51:00,70.3,41.4,30.12,ESE,112,0.0,0.0,35,0.00,,---,0.00,VWS V14.01,2013-03-10 06:51:00,
2013-03-10 08:52:00,70.5,41.6,30.12,East,90,0.0,0.0,35,0.00,,---,0.00,VWS V14.01,2013-03-10 06:52:00,
2013-03-10 08:53:00,70.5,41.6,30.12,ESE,112,0.0,0.0,35,0.00,,---,0.00,VWS V14.01,2013-03-10 06:53:00,
2013-03-10 08:54:00,70.5,42.3,30.12,ESE,112,0.0,0.0,36,0.00,,---,0.00,VWS V14.01,2013-03-10 06:54:00,
2013-03-10 08:55:00,70.5,42.3,30.12,ENE,68,0.0,0.0,36,0.00,,---,0.00,VWS V14.01,2013-03-10 06:55:00,
2013-03-10 08:56:00,70.5,42.3,30.12,ENE,68,0.0,0.0,36,0.00,,---,0.00,VWS V14.01,2013-03-10 06:56:00,
2013-03-10 08:57:00,70.7,43.2,30.12,ESE,112,0.0,0.0,37,0.00,,---,0.00,VWS V14.01,2013-03-10 06:57:00,
2013-03-10 08:59:00,70.9,43.3,30.12,ESE,112,0.0,0.0,37,0.00,,---,0.00,VWS V14.01,2013-03-10 06:59:00,
2013-03-10 09:00:00,70.9,43.3,30.12,ESE,112,0.0,0.0,37,0.00,,---,0.00,VWS V14.01,2013-03-10 07:00:00,
2013-03-10 09:01:00,70.9,43.3,30.12,ESE,112,0.0,0.0,37,0.00,,---,0.00,VWS V14.01,2013-03-10 07:01:00,
2013-03-10 09:02:00,70.9,43.3,30.12,SE,135,0.0,0.0,37,0.00,,---,0.00,VWS V14.01,2013-03-10 07:02:00,
2013-03-10 09:03:00,70.9,43.3,30.12,East,90,0.0,0.0,37,0.00,,---,0.00,VWS V14.01,2013-03-10 07:03:00,
2013-03-10 09:04:00,70.9,43.3,30.12,East,90,0.0,0.0,37,0.00,,---,0.00,VWS V14.01,2013-03-10 07:04:00,
2013-03-10 09:05:00,70.9,43.3,30.12,SE,135,0.0,0.0,37,0.00,,---,0.00,VWS V14.01,2013-03-10 07:05:00,
2013-03-10 09:06:00,70.9,43.3,30.12,East,90,0.0,0.0,37,0.00,,---,0.00,VWS V14.01,2013-03-10 07:06:00,
2013-03-10 09:07:00,70.9,43.3,30.12,ESE,112,0.0,0.0,37,0.00,,---,0.00,VWS V14.01,2013-03-10 07:07:00,
2013-03-10 09:08:00,70.9,43.3,30.12,ESE,112,0.0,0.0,37,0.00,,---,0.00,VWS V14.01,2013-03-10 07:08:00,
2013-03-10 09:09:00,70.9,43.3,30.12,East,90,0.0,0.0,37,0.00,,---,0.00,VWS V14.01,2013-03-10 07:09:00,
2013-03-10 09:10:00,70.9,43.3,30.12,East,90,0.0,0.0,37,0.00,,---,0.00,VWS V14.01,2013-03-10 07:10:00,
2013-03-10 09:11:00,70.9,43.3,30.12,ESE,112,0.0,0.0,37,0.00,,---,0.00,VWS V14.01,2013-03-10 07:11:00,
2013-03-10 09:12:00,70.9,43.3,30.12,ESE,112,0.0,0.0,37,0.00,,---,0.00,VWS V14.01,2013-03-10 07:12:00,
2013-03-10 09:13:00,70.9,43.3,30.12,East,90,0.0,0.0,37,0.00,,---,0.00,VWS V14.01,2013-03-10 07:13:00,
2013-03-10 09:14:00,70.9,43.3,30.12,ESE,112,0.0,0.0,37,0.00,,---,0.00,VWS V14.01,2013-03-10 07:14:00,
2013-03-10 09:15:00,70.9,43.3,30.12,ESE,112,0.0,0.0,37,0.00,,---,0.00,VWS V14.01,2013-03-10 07:15:00,
2013-03-10 09:16:00,70.9,43.3,30.12,NE,45,0.0,0.0,37,0.00,,---,0.00,VWS V14.01,2013-03-10 07:16:00,
2013-03-10 09:17:00,70.9,43.3,30.12,ESE,112,0.0,0.0,37,0.00,,---,0.00,VWS V14.01,2013-03-10 07:17:00,
2013-03-10 09:18:00,70.9,43.3,30.12,ESE,112,0.0,0.0,37,0.00,,---,0.00,VWS V14.01,2013-03-10 07:18:00,
2013-03-10 09:19:00,70.9,43.3,30.12,ESE,112,0.0,0.0,37,0.00,,---,0.00,VWS V14.01,2013-03-10 07:19:00,
2013-03-10 09:20:00,70.9,43.3,30.12,NE,45,0.0,0.0,37,0.00,,---,0.00,VWS V14.01,2013-03-10 07:20:00,
2013-03-10 09:21:00,70.9,43.3,30.12,ESE,112,0.0,0.0,37,0.00,,---,0.00,VWS V14.01,2013-03-10 07:21:00,
2013-03-10 09:22:00,70.9,43.3,30.12,ESE,112,0.0,0.0,37,0.00,,---,0.00,VWS V14.01,2013-03-10 07:22:00,
2013-03-10 09:23:00,70.9,43.3,30.12,East,90,0.0,0.0,37,0.00,,---,0.00,VWS V14.01,2013-03-10 07:23:00,
2013-03-10 09:24:00,70.9,43.3,30.12,ENE,68,0.0,0.0,37,0.00,,---,0.00,VWS V14.01,2013-03-10 07:24:00,
2013-03-10 09:25:00,70.9,43.3,30.12,East,90,0.0,0.0,37,0.00,,---,0.00,VWS V14.01,2013-03-10 07:25:00,
2013-03-10 09:26:00,70.9,43.3,30.12,ESE,112,0.0,0.0,37,0.00,,---,0.00,VWS V14.01,2013-03-10 07:26:00,
2013-03-10 09:27:00,70.9,43.3,30.12,ESE,112,0.0,0.0,37,0.00,,---,0.00,VWS V14.01,2013-03-10 07:27:00,
2013-03-10 09:28:00,70.9,43.3,30.12,ESE,112,0.0,0.0,37,0.00,,---,0.00,VWS V14.01,2013-03-10 07:28:00,
2013-03-10 09:29:00,70.9,43.3,30.12,ESE,112,0.0,0.0,37,0.00,,---,0.00,VWS V14.01,2013-03-10 07:29:00,
2013-03-10 09:30:00,70.9,43.3,30.12,East,90,0.0,0.0,37,0.00,,---,0.00,VWS V14.01,2013-03-10 07:30:00,
2013-03-10 09:31:00,70.9,43.3,30.12,ESE,112,0.0,0.0,37,0.00,,---,0.00,VWS V14.01,2013-03-10 07:31:00,
2013-03-10 09:32:00,70.9,43.3,30.12,ESE,112,0.0,0.0,37,0.00,,---,0.00,VWS V14.01,2013-03-10 07:32:00,
2013-03-10 09:33:00,70.9,43.3,30.12,ESE,112,0.0,0.0,37,0.00,,---,0.00,VWS V14.01,2013-03-10 07:33:00,
2013-03-10 09:34:00,71.2,42.2,30.12,ESE,112,0.0,0.0,35,0.00,,---,0.00,VWS V14.01,2013-03-10 07:34:00,
2013-03-10 09:35:00,71.4,42.4,30.12,ESE,112,0.0,0.0,35,0.00,,---,0.00,VWS V14.01,2013-03-10 07:35:00,
2013-03-10 09:36:00,71.4,42.4,30.12,ESE,112,0.0,0.0,35,0.00,,---,0.00,VWS V14.01,2013-03-10 07:36:00,
2013-03-10 09:37:00,71.8,42.7,30.12,ESE,112,0.0,0.0,35,0.00,,---,0.00,VWS V14.01,2013-03-10 07:37:00,
2013-03-10 09:38:00,72.1,43.0,30.12,ENE,68,0.0,0.0,35,0.00,,---,0.00,VWS V14.01,2013-03-10 07:38:00,
2013-03-10 09:39:00,72.3,43.2,30.12,East,90,0.0,0.0,35,0.00,,---,0.00,VWS V14.01,2013-03-10 07:39:00,
2013-03-10 09:40:00,72.3,43.2,30.12,ESE,112,0.0,0.0,35,0.00,,---,0.00,VWS V14.01,2013-03-10 07:40:00,
2013-03-10 09:41:00,72.1,42.2,30.12,ESE,112,0.0,0.0,34,0.00,,---,0.00,VWS V14.01,2013-03-10 07:41:00,
2013-03-10 09:42:00,72.0,42.1,30.12,ESE,112,0.0,0.0,34,0.00,,---,0.00,VWS V14.01,2013-03-10 07:42:00,
2013-03-10 09:43:00,72.0,42.1,30.12,ESE,112,0.0,0.0,34,0.00,,---,0.00,VWS V14.01,2013-03-10 07:43:00,
2013-03-10 09:44:00,71.8,41.9,30.12,ENE,68,0.0,0.0,34,0.00,,---,0.00,VWS V14.01,2013-03-10 07:44:00,
2013-03-10 09:45:00,72.0,42.8,30.12,ESE,112,0.0,0.0,35,0.00,,---,0.00,VWS V14.01,2013-03-10 07:45:00,
2013-03-10 09:46:00,72.0,42.8,30.12,ESE,112,0.0,0.0,35,0.00,,---,0.00,VWS V14.01,2013-03-10 07:46:00,
2013-03-10 09:47:00,72.0,42.8,30.12,ESE,112,0.0,0.0,35,0.00,,---,0.00,VWS V14.01,2013-03-10 07:47:00,
2013-03-10 09:48:00,71.8,42.7,30.12,East,90,0.0,0.0,35,0.00,,---,0.00,VWS V14.01,2013-03-10 07:48:00,
2013-03-10 09:49:00,71.8,42.7,30.12,ESE,112,0.0,0.0,35,0.00,,---,0.00,VWS V14.01,2013-03-10 07:49:00,
2013-03-10 09:50:00,71.8,42.7,30.12,ESE,112,0.0,0.0,35,0.00,,---,0.00,VWS V14.01,2013-03-10 07:50:00,
2013-03-10 09:51:00,72.0,42.8,30.12,ESE,112,0.0,0.0,35,0.00,,---,0.00,VWS V14.01,2013-03-10 07:51:00,
2013-03-10 09:52:00,72.0,42.8,30.12,East,90,0.0,0.0,35,0.00,,---,0.00,VWS V14.01,2013-03-10 07:52:00,
2013-03-10 09:53:00,72.1,43.0,30.12,ESE,112,0.0,0.0,35,0.00,,---,0.00,VWS V14.01,2013-03-10 07:53:00,
2013-03-10 09:54:00,72.1,43.0,30.12,ESE,112,0.0,0.0,35,0.00,,---,0.00,VWS V14.01,2013-03-10 07:54:00,
2013-03-10 09:55:00,72.0,42.8,30.12,ESE,112,0.0,0.0,35,0.00,,---,0.00,VWS V14.01,2013-03-10 07:55:00,
2013-03-10 09:56:00,72.0,42.1,30.12,East,90,0.0,0.0,34,0.00,,---,0.00,VWS V14.01,2013-03-10 07:56:00,
2013-03-10 09:57:00,72.0,42.1,30.12,East,90,0.0,0.0,34,0.00,,---,0.00,VWS V14.01,2013-03-10 07:57:00,
2013-03-10 09:58:00,72.1,43.0,30.12,East,90,0.0,0.0,35,0.00,,---,0.00,VWS V14.01,2013-03-10 07:58:00,
2013-03-10 09:59:00,72.0,42.1,30.12,East,90,0.0,0.0,34,0.00,,---,0.00,VWS V14.01,2013-03-10 07:59:00,
2013-03-10 10:00:00,72.1,42.2,30.12,ENE,68,0.0,0.0,34,0.00,,---,0.00,VWS V14.01,2013-03-10 08:00:00,
2013-03-10 10:01:00,72.1,42.2,30.12,ENE,68,0.0,0.0,34,0.00,,---,0.00,VWS V14.01,2013-03-10 08:01:00,
2013-03-10 10:02:00,72.1,42.2,30.12,ENE,68,0.0,0.0,34,0.00,,---,0.00,VWS V14.01,2013-03-10 08:02:00,
2013-03-10 10:03:00,72.3,41.6,30.12,ESE,112,0.0,0.0,33,0.00,,---,0.00,VWS V14.01,2013-03-10 08:03:00,
2013-03-10 10:04:00,72.3,41.6,30.12,ESE,112,0.0,0.0,33,0.00,,---,0.00,VWS V14.01,2013-03-10 08:04:00,
2013-03-10 10:05:00,72.3,41.6,30.12,East,90,0.0,0.0,33,0.00,,---,0.00,VWS V14.01,2013-03-10 08:05:00,
2013-03-10 10:06:00,72.7,42.0,30.12,ESE,112,0.0,0.0,33,0.00,,---,0.00,VWS V14.01,2013-03-10 08:06:00,
2013-03-10 10:07:00,72.7,42.0,30.12,SSE,158,0.0,0.0,33,0.00,,---,0.00,VWS V14.01,2013-03-10 08:07:00,
2013-03-10 10:08:00,72.7,42.0,30.12,NNE,22,0.0,0.0,33,0.00,,---,0.00,VWS V14.01,2013-03-10 08:08:00,
2013-03-10 10:09:00,72.7,42.0,30.12,NNE,22,0.0,0.0,33,0.00,,---,0.00,VWS V14.01,2013-03-10 08:09:00,
2013-03-10 10:10:00,72.7,42.0,30.09,East,90,0.0,0.0,33,0.00,,---,0.00,VWS V14.01,2013-03-10 08:10:00,
2013-03-10 10:11:00,72.5,41.8,30.09,East,90,0.0,0.0,33,0.00,,---,0.00,VWS V14.01,2013-03-10 08:11:00,
2013-03-10 10:12:00,72.5,41.8,30.09,ENE,68,0.0,0.0,33,0.00,,---,0.00,VWS V14.01,2013-03-10 08:12:00,
2013-03-10 10:13:00,72.5,41.8,30.09,East,90,0.0,0.0,33,0.00,,---,0.00,VWS V14.01,2013-03-10 08:13:00,
2013-03-10 10:14:00,72.5,41.8,30.09,East,90,0.0,0.0,33,0.00,,---,0.00,VWS V14.01,2013-03-10 08:14:00,
2013-03-10 10:15:00,72.5,41.8,30.09,ESE,112,0.0,0.0,33,0.00,,---,0.00,VWS V14.01,2013-03-10 08:15:00,
2013-03-10 10:16:00,72.7,42.0,30.09,ENE,68,0.0,0.0,33,0.00,,---,0.00,VWS V14.01,2013-03-10 08:16:00,
2013-03-10 10:17:00,72.9,42.1,30.09,East,90,0.0,0.0,33,0.00,,---,0.00,VWS V14.01,2013-03-10 08:17:00,
2013-03-10 10:18:00,72.9,42.1,30.09,East,90,0.0,0.0,33,0.00,,---,0.00,VWS V14.01,2013-03-10 08:18:00,
2013-03-10 10:19:00,73.0,42.3,30.09,ESE,112,0.0,0.0,33,0.00,,---,0.00,VWS V14.01,2013-03-10 08:19:00,
2013-03-10 10:20:00,73.0,42.3,30.09,ESE,112,0.0,0.0,33,0.00,,---,0.00,VWS V14.01,2013-03-10 08:20:00,
2013-03-10 10:21:00,73.0,42.3,30.09,ESE,112,0.0,0.0,33,0.00,,---,0.00,VWS V14.01,2013-03-10 08:21:00,
2013-03-10 10:22:00,73.0,42.3,30.09,ESE,112,0.0,0.0,33,0.00,,---,0.00,VWS V14.01,2013-03-10 08:22:00,
2013-03-10 10:23:00,72.9,42.1,30.09,SE,135,0.0,0.0,33,0.00,,---,0.00,VWS V14.01,2013-03-10 08:23:00,
2013-03-10 10:24:00,73.0,42.3,30.09,ESE,112,0.0,0.0,33,0.00,,---,0.00,VWS V14.01,2013-03-10 08:24:00,
2013-03-10 10:25:00,72.9,42.1,30.12,ESE,112,0.0,0.0,33,0.00,,---,0.00,VWS V14.01,2013-03-10 08:25:00,
2013-03-10 10:26:00,72.7,42.0,30.12,East,90,0.0,0.0,33,0.00,,---,0.00,VWS V14.01,2013-03-10 08:26:00,
2013-03-10 10:27:00,72.9,42.1,30.12,ENE,68,0.0,0.0,33,0.00,,---,0.00,VWS V14.01,2013-03-10 08:27:00,
2013-03-10 10:28:00,72.9,42.1,30.12,East,90,0.0,0.0,33,0.00,,---,0.00,VWS V14.01,2013-03-10 08:28:00,
2013-03-10 10:29:00,73.0,42.3,30.12,East,90,0.0,0.0,33,0.00,,---,0.00,VWS V14.01,2013-03-10 08:29:00,
2013-03-10 10:30:00,73.4,42.6,30.12,ESE,112,0.0,0.0,33,0.00,,---,0.00,VWS V14.01,2013-03-10 08:30:00,
2013-03-10 10:31:00,73.4,42.6,30.12,ESE,112,0.0,0.0,33,0.00,,---,0.00,VWS V14.01,2013-03-10 08:31:00,
2013-03-10 10:32:00,73.2,42.4,30.12,East,90,0.0,0.0,33,0.00,,---,0.00,VWS V14.01,2013-03-10 08:32:00,
2013-03-10 10:33:00,73.4,41.8,30.12,East,90,0.0,0.0,32,0.00,,---,0.00,VWS V14.01,2013-03-10 08:33:00,
2013-03-10 10:34:00,73.2,42.4,30.12,East,90,0.0,0.0,33,0.00,,---,0.00,VWS V14.01,2013-03-10 08:34:00,
2013-03-10 10:35:00,73.2,42.4,30.12,ESE,112,0.0,0.0,33,0.00,,---,0.00,VWS V14.01,2013-03-10 08:35:00,
2013-03-10 10:36:00,73.2,42.4,30.12,ESE,112,0.0,0.0,33,0.00,,---,0.00,VWS V14.01,2013-03-10 08:36:00,
2013-03-10 10:37:00,73.0,41.5,30.12,ESE,112,0.0,0.0,32,0.00,,---,0.00,VWS V14.01,2013-03-10 08:37:00,
2013-03-10 10:38:00,73.0,41.5,30.12,East,90,0.0,0.0,32,0.00,,---,0.00,VWS V14.01,2013-03-10 08:38:00,
2013-03-10 10:39:00,73.0,41.5,30.12,East,90,0.0,0.0,32,0.00,,---,0.00,VWS V14.01,2013-03-10 08:39:00,
2013-03-10 10:40:00,73.2,42.4,30.09,ESE,112,0.0,0.0,33,0.00,,---,0.00,VWS V14.01,2013-03-10 08:40:00,
2013-03-10 10:45:00,73.8,42.1,30.09,ESE,112,0.0,0.0,32,0.00,,---,0.00,VWS V14.01,2013-03-10 08:45:00,
2013-03-10 10:46:00,73.8,42.1,30.09,ESE,112,0.0,0.0,32,0.00,,---,0.00,VWS V14.01,2013-03-10 08:46:00,
2013-03-10 10:47:00,73.6,41.9,30.09,ESE,112,0.0,0.0,32,0.00,,---,0.00,VWS V14.01,2013-03-10 08:47:00,
2013-03-10 10:48:00,73.9,43.0,30.09,SE,135,0.0,0.0,33,0.00,,---,0.00,VWS V14.01,2013-03-10 08:48:00,
2013-03-10 10:49:00,73.8,42.1,30.09,ESE,112,0.0,0.0,32,0.00,,---,0.00,VWS V14.01,2013-03-10 08:49:00,
2013-03-10 10:50:00,73.6,41.9,30.09,ESE,112,0.0,0.0,32,0.00,,---,0.00,VWS V14.01,2013-03-10 08:50:00,
2013-03-10 10:51:00,73.4,41.8,30.09,ESE,112,0.0,0.0,32,0.00,,---,0.00,VWS V14.01,2013-03-10 08:51:00,
2013-03-10 10:52:00,73.4,41.8,30.09,ESE,112,0.0,0.0,32,0.00,,---,0.00,VWS V14.01,2013-03-10 08:52:00,
2013-03-10 10:53:00,73.6,42.7,30.09,ESE,112,0.0,0.0,33,0.00,,---,0.00,VWS V14.01,2013-03-10 08:53:00,
2013-03-10 10:54:00,73.6,42.7,30.09,ESE,112,0.0,0.0,33,0.00,,---,0.00,VWS V14.01,2013-03-10 08:54:00,
2013-03-10 10:55:00,73.4,42.6,30.12,East,90,0.0,0.0,33,0.00,,---,0.00,VWS V14.01,2013-03-10 08:55:00,
2013-03-10 10:56:00,73.8,42.9,30.12,East,90,0.0,0.0,33,0.00,,---,0.00,VWS V14.01,2013-03-10 08:56:00,
2013-03-10 10:57:00,73.4,42.6,30.12,East,90,0.0,0.0,33,0.00,,---,0.00,VWS V14.01,2013-03-10 08:57:00,
2013-03-10 10:58:00,73.4,42.6,30.12,ENE,68,0.0,0.0,33,0.00,,---,0.00,VWS V14.01,2013-03-10 08:58:00,
2013-03-10 10:59:00,73.9,43.0,30.12,ESE,112,0.0,0.0,33,0.00,,---,0.00,VWS V14.01,2013-03-10 08:59:00,
2013-03-10 11:00:00,73.9,43.0,30.12,ENE,68,0.0,0.0,33,0.00,,---,0.00,VWS V14.01,2013-03-10 09:00:00,
2013-03-10 11:01:00,73.6,41.9,30.12,East,90,0.0,0.0,32,0.00,,---,0.00,VWS V14.01,2013-03-10 09:01:00,
2013-03-10 11:02:00,73.6,41.9,30.12,East,90,0.0,0.0,32,0.00,,---,0.00,VWS V14.01,2013-03-10 09:02:00,
2013-03-10 11:03:00,73.6,41.9,30.12,ESE,112,0.0,0.0,32,0.00,,---,0.00,VWS V14.01,2013-03-10 09:03:00,
2013-03-10 11:04:00,73.4,42.6,30.12,East,90,0.0,0.0,33,0.00,,---,0.00,VWS V14.01,2013-03-10 09:04:00,
2013-03-10 11:05:00,73.4,42.6,30.12,East,90,0.0,0.0,33,0.00,,---,0.00,VWS V14.01,2013-03-10 09:05:00,
2013-03-10 11:06:00,74.1,43.2,30.12,ESE,112,0.0,0.0,33,0.00,,---,0.00,VWS V14.01,2013-03-10 09:06:00,
2013-03-10 11:07:00,74.1,43.2,30.12,ESE,112,0.0,0.0,33,0.00,,---,0.00,VWS V14.01,2013-03-10 09:07:00,
2013-03-10 11:17:00,73.0,43.0,30.09,ESE,112,0.0,0.0,34,0.00,,---,0.00,VWS V14.01,2013-03-10 09:17:00,
2013-03-10 11:18:00,72.3,42.4,30.09,ENE,68,0.0,0.0,34,0.00,,---,0.00,VWS V14.01,2013-03-10 09:18:00,
2013-03-10 11:19:00,72.7,42.7,30.09,ESE,112,0.0,0.0,34,0.00,,---,0.00,VWS V14.01,2013-03-10 09:19:00,
2013-03-10 11:29:00,73.9,42.2,30.09,East,90,0.0,0.0,32,0.00,,---,0.00,VWS V14.01,2013-03-10 09:29:00,
2013-03-10 11:34:00,73.9,43.0,30.09,ESE,112,0.0,0.0,33,0.00,,---,0.00,VWS V14.01,2013-03-10 09:34:00,
2013-03-10 11:35:00,74.1,43.2,30.09,ENE,68,0.0,0.0,33,0.00,,---,0.00,VWS V14.01,2013-03-10 09:35:00,
2013-03-10 11:39:00,74.1,42.4,30.09,ESE,112,0.0,0.0,32,0.00,,---,0.00,VWS V14.01,2013-03-10 09:39:00,
2013-03-10 11:40:00,73.9,42.2,30.09,East,90,0.0,0.0,32,0.00,,---,0.00,VWS V14.01,2013-03-10 09:40:00,
2013-03-10 11:42:00,74.1,42.4,30.09,East,90,0.0,0.0,32,0.00,,---,0.00,VWS V14.01,2013-03-10 09:42:00,
2013-03-10 11:46:00,74.3,42.6,30.09,East,90,0.0,0.0,32,0.00,,---,0.00,VWS V14.01,2013-03-10 09:46:00,
2013-03-10 11:47:00,74.5,42.7,30.09,SE,135,0.0,0.0,32,0.00,,---,0.00,VWS V14.01,2013-03-10 09:47:00,
2013-03-10 11:48:00,74.5,42.7,30.09,SE,135,0.0,0.0,32,0.00,,---,0.00,VWS V14.01,2013-03-10 09:48:00,
2013-03-10 11:51:00,74.7,42.9,30.09,ESE,112,0.0,0.0,32,0.00,,---,0.00,VWS V14.01,2013-03-10 09:51:00,
2013-03-10 11:54:00,73.9,41.4,30.09,ESE,112,0.0,0.0,31,0.00,,---,0.00,VWS V14.01,2013-03-10 09:54:00,
2013-03-10 11:57:00,74.8,43.0,30.09,ESE,112,0.0,0.0,32,0.00,,---,0.00,VWS V14.01,2013-03-10 09:57:00,
2013-03-10 12:00:00,74.7,42.9,30.09,SSE,158,0.0,0.0,32,0.00,,---,0.00,VWS V14.01,2013-03-10 10:00:00,
2013-03-10 12:01:00,74.7,42.9,30.09,ESE,112,0.0,0.0,32,0.00,,---,0.00,VWS V14.01,2013-03-10 10:01:00,
2013-03-10 12:03:00,74.5,42.7,30.09,ESE,112,0.0,0.0,32,0.00,,---,0.00,VWS V14.01,2013-03-10 10:03:00,
2013-03-10 12:05:00,74.1,42.4,30.09,ENE,68,0.0,0.0,32,0.00,,---,0.00,VWS V14.01,2013-03-10 10:05:00,
2013-03-10 12:09:00,74.3,42.6,30.09,ESE,112,0.0,0.0,32,0.00,,---,0.00,VWS V14.01,2013-03-10 10:09:00,
2013-03-10 12:10:00,74.5,42.7,30.09,ESE,112,0.0,0.0,32,0.00,,---,0.00,VWS V14.01,2013-03-10 10:10:00,
2013-03-10 12:11:00,74.5,42.7,30.09,ESE,112,0.0,0.0,32,0.00,,---,0.00,VWS V14.01,2013-03-10 10:11:00,
2013-03-10 12:14:00,74.3,42.6,30.09,SE,135,0.0,0.0,32,0.00,,---,0.00,VWS V14.01,2013-03-10 10:14:00,
2013-03-10 12:16:00,74.3,42.6,30.09,ESE,112,0.0,0.0,32,0.00,,---,0.00,VWS V14.01,2013-03-10 10:16:00,
2013-03-10 12:19:00,74.3,41.7,30.09,ENE,68,0.0,0.0,31,0.00,,---,0.00,VWS V14.01,2013-03-10 10:19:00,
2013-03-10 12:21:00,74.1,42.4,30.09,ESE,112,0.0,0.0,32,0.00,,---,0.00,VWS V14.01,2013-03-10 10:21:00,
2013-03-10 12:26:00,73.9,41.4,30.09,East,90,0.0,0.0,31,0.00,,---,0.00,VWS V14.01,2013-03-10 10:26:00,
2013-03-10 12:27:00,74.5,41.9,30.09,ESE,112,0.0,0.0,31,0.00,,---,0.00,VWS V14.01,2013-03-10 10:27:00,
2013-03-10 12:29:00,74.3,41.7,30.09,ESE,112,0.0,0.0,31,0.00,,---,0.00,VWS V14.01,2013-03-10 10:29:00,
2013-03-10 12:32:00,74.5,41.9,30.09,ESE,112,0.0,0.0,31,0.00,,---,0.00,VWS V14.01,2013-03-10 10:32:00,
2013-03-10 12:33:00,74.7,42.0,30.09,East,90,0.0,0.0,31,0.00,,---,0.00,VWS V14.01,2013-03-10 10:33:00,
2013-03-10 12:34:00,74.7,42.0,30.09,ENE,68,0.0,0.0,31,0.00,,---,0.00,VWS V14.01,2013-03-10 10:34:00,
2013-03-10 12:37:00,74.8,43.0,30.09,East,90,0.0,0.0,32,0.00,,---,0.00,VWS V14.01,2013-03-10 10:37:00,
2013-03-10 12:38:00,74.8,42.2,30.09,ESE,112,0.0,0.0,31,0.00,,---,0.00,VWS V14.01,2013-03-10 10:38:00,
2013-03-10 12:39:00,74.8,42.2,30.09,ESE,112,0.0,0.0,31,0.00,,---,0.00,VWS V14.01,2013-03-10 10:39:00,
2013-03-10 12:44:00,74.8,42.2,30.09,ESE,112,0.0,0.0,31,0.00,,---,0.00,VWS V14.01,2013-03-10 10:44:00,
2013-03-10 12:46:00,74.7,42.0,30.09,ESE,112,0.0,0.0,31,0.00,,---,0.00,VWS V14.01,2013-03-10 10:46:00,
2013-03-10 12:49:00,75.0,42.4,30.09,ESE,112,0.0,0.0,31,0.00,,---,0.00,VWS V14.01,2013-03-10 10:49:00,
2013-03-10 12:51:00,75.0,42.4,30.09,East,90,0.0,0.0,31,0.00,,---,0.00,VWS V14.01,2013-03-10 10:51:00,
2013-03-10 12:52:00,75.0,42.4,30.09,ESE,112,0.0,0.0,31,0.00,,---,0.00,VWS V14.01,2013-03-10 10:52:00,
2013-03-10 12:54:00,74.8,42.2,30.09,ESE,112,0.0,0.0,31,0.00,,---,0.00,VWS V14.01,2013-03-10 10:54:00,
2013-03-10 12:57:00,74.8,40.5,30.06,ESE,112,0.0,0.0,29,0.00,,---,0.00,VWS V14.01,2013-03-10 10:57:00,
2013-03-10 12:58:00,74.7,40.3,30.06,SSE,158,0.0,0.0,29,0.00,,---,0.00,VWS V14.01,2013-03-10 10:58:00,
2013-03-10 13:00:00,74.8,40.5,30.06,ESE,112,0.0,0.0,29,0.00,,---,0.00,VWS V14.01,2013-03-10 11:00:00,
2013-03-10 13:01:00,75.2,40.8,30.06,East,90,0.0,0.0,29,0.00,,---,0.00,VWS V14.01,2013-03-10 11:01:00,
2013-03-10 13:03:00,75.0,41.5,30.06,East,90,0.0,0.0,30,0.00,,---,0.00,VWS V14.01,2013-03-10 11:03:00,
2013-03-10 13:04:00,75.2,40.8,30.06,ESE,112,0.0,0.0,29,0.00,,---,0.00,VWS V14.01,2013-03-10 11:04:00,
2013-03-10 13:05:00,75.0,41.5,30.06,ESE,112,0.0,0.0,30,0.00,,---,0.00,VWS V14.01,2013-03-10 11:05:00,
2013-03-10 13:10:00,75.4,41.0,30.06,East,90,0.0,0.0,29,0.00,,---,0.00,VWS V14.01,2013-03-10 11:10:00,
2013-03-10 13:11:00,74.8,39.6,30.06,East,90,0.0,0.0,28,0.00,,---,0.00,VWS V14.01,2013-03-10 11:11:00,
2013-03-10 13:12:00,74.8,40.5,30.06,ENE,68,0.0,0.0,29,0.00,,---,0.00,VWS V14.01,2013-03-10 11:12:00,
2013-03-10 13:15:00,75.2,41.7,30.06,ESE,112,0.0,0.0,30,0.00,,---,0.00,VWS V14.01,2013-03-10 11:15:00,
2013-03-10 13:16:00,74.7,40.3,30.06,ESE,112,0.0,0.0,29,0.00,,---,0.00,VWS V14.01,2013-03-10 11:16:00,
2013-03-10 13:19:00,74.8,39.6,30.06,ESE,112,0.0,0.0,28,0.00,,---,0.00,VWS V14.01,2013-03-10 11:19:00,
2013-03-10 13:20:00,74.8,39.6,30.06,ENE,68,0.0,0.0,28,0.00,,---,0.00,VWS V14.01,2013-03-10 11:20:00,
2013-03-10 13:21:00,75.2,40.8,30.06,ENE,68,0.0,0.0,29,0.00,,---,0.00,VWS V14.01,2013-03-10 11:21:00,
2013-03-10 13:22:00,75.2,39.9,30.06,ENE,68,0.0,0.0,28,0.00,,---,0.00,VWS V14.01,2013-03-10 11:22:00,
2013-03-10 13:26:00,75.0,39.7,30.09,ESE,112,0.0,0.0,28,0.00,,---,0.00,VWS V14.01,2013-03-10 11:26:00,
2013-03-10 13:28:00,74.8,40.5,30.09,SE,135,0.0,0.0,29,0.00,,---,0.00,VWS V14.01,2013-03-10 11:28:00,
2013-03-10 13:31:00,75.2,40.8,30.09,SSE,158,0.0,0.0,29,0.00,,---,0.00,VWS V14.01,2013-03-10 11:31:00,
2013-03-10 13:33:00,75.2,40.8,30.09,East,90,0.0,0.0,29,0.00,,---,0.00,VWS V14.01,2013-03-10 11:33:00,
2013-03-10 13:34:00,75.2,41.7,30.09,ENE,68,0.0,0.0,30,0.00,,---,0.00,VWS V14.01,2013-03-10 11:34:00,
2013-03-10 13:37:00,75.7,42.1,30.09,ESE,112,0.0,0.0,30,0.00,,---,0.00,VWS V14.01,2013-03-10 11:37:00,
2013-03-10 13:39:00,75.7,41.3,30.09,ESE,112,0.0,0.0,29,0.00,,---,0.00,VWS V14.01,2013-03-10 11:39:00,
2013-03-10 13:40:00,75.6,41.1,30.09,SE,135,0.0,0.0,29,0.00,,---,0.00,VWS V14.01,2013-03-10 11:40:00,
2013-03-10 13:42:00,75.6,41.1,30.06,East,90,0.0,0.0,29,0.00,,---,0.00,VWS V14.01,2013-03-10 11:42:00,
2013-03-10 13:45:00,75.4,41.0,30.06,ESE,112,0.0,0.0,29,0.00,,---,0.00,VWS V14.01,2013-03-10 11:45:00,
2013-03-10 13:47:00,75.4,41.0,30.06,ESE,112,0.0,0.0,29,0.00,,---,0.00,VWS V14.01,2013-03-10 11:47:00,
2013-03-10 13:49:00,75.0,40.6,30.06,ESE,112,0.0,0.0,29,0.00,,---,0.00,VWS V14.01,2013-03-10 11:49:00,
2013-03-10 13:50:00,75.4,40.0,30.06,SSE,158,0.0,0.0,28,0.00,,---,0.00,VWS V14.01,2013-03-10 11:50:00,
2013-03-10 13:54:00,75.4,41.0,30.06,ESE,112,0.0,0.0,29,0.00,,---,0.00,VWS V14.01,2013-03-10 11:54:00,
2013-03-10 13:55:00,75.6,41.1,30.06,ESE,112,0.0,0.0,29,0.00,,---,0.00,VWS V14.01,2013-03-10 11:55:00,
2013-03-10 13:56:00,75.6,41.1,30.06,ESE,112,0.0,0.0,29,0.00,,---,0.00,VWS V14.01,2013-03-10 11:56:00,
2013-03-10 13:57:00,75.2,41.7,30.06,ESE,112,0.0,0.0,30,0.00,,---,0.00,VWS V14.01,2013-03-10 11:57:00,
2013-03-10 14:02:00,75.4,41.0,30.06,ESE,112,0.0,0.0,29,0.00,,---,0.00,VWS V14.01,2013-03-10 12:02:00,
2013-03-10 14:04:00,75.4,41.0,30.06,ESE,112,0.0,0.0,29,0.00,,---,0.00,VWS V14.01,2013-03-10 12:04:00,
2013-03-10 14:05:00,75.2,40.8,30.06,ENE,68,0.0,0.0,29,0.00,,---,0.00,VWS V14.01,2013-03-10 12:05:00,
2013-03-10 14:07:00,75.0,42.4,30.06,East,90,0.0,0.0,31,0.00,,---,0.00,VWS V14.01,2013-03-10 12:07:00,
2013-03-10 14:08:00,75.0,42.4,30.06,ESE,112,0.0,0.0,31,0.00,,---,0.00,VWS V14.01,2013-03-10 12:08:00,
2013-03-10 14:11:00,74.7,42.0,30.06,East,90,0.0,0.0,31,0.00,,---,0.00,VWS V14.01,2013-03-10 12:11:00,
2013-03-10 14:13:00,74.1,41.6,30.06,ESE,112,0.0,0.0,31,0.00,,---,0.00,VWS V14.01,2013-03-10 12:13:00,
2013-03-10 14:18:00,75.0,43.2,30.06,ENE,68,0.0,0.0,32,0.00,,---,0.00,VWS V14.01,2013-03-10 12:18:00,
2013-03-10 14:19:00,74.8,43.0,30.06,South,180,0.0,0.0,32,0.00,,---,0.00,VWS V14.01,2013-03-10 12:19:00,
2013-03-10 14:20:00,74.8,43.0,30.06,North,0,0.0,0.0,32,0.00,,---,0.00,VWS V14.01,2013-03-10 12:20:00,
2013-03-10 14:25:00,75.0,43.2,30.06,ESE,112,0.0,0.0,32,0.00,,---,0.00,VWS V14.01,2013-03-10 12:25:00,
2013-03-10 14:26:00,75.2,43.3,30.06,ESE,112,0.0,0.0,32,0.00,,---,0.00,VWS V14.01,2013-03-10 12:26:00,
2013-03-10 14:28:00,75.2,42.5,30.06,ENE,68,0.0,0.0,31,0.00,,---,0.00,VWS V14.01,2013-03-10 12:28:00,
2013-03-10 14:31:00,75.0,43.2,30.06,East,90,0.0,0.0,32,0.00,,---,0.00,VWS V14.01,2013-03-10 12:31:00,
2013-03-10 14:32:00,75.0,43.2,30.06,ESE,112,0.0,0.0,32,0.00,,---,0.00,VWS V14.01,2013-03-10 12:32:00,
2013-03-10 14:34:00,75.2,43.3,30.06,ESE,112,0.0,0.0,32,0.00,,---,0.00,VWS V14.01,2013-03-10 12:34:00,
2013-03-10 14:35:00,75.0,43.2,30.06,ENE,68,0.0,0.0,32,0.00,,---,0.00,VWS V14.01,2013-03-10 12:35:00,
2013-03-10 14:36:00,75.0,43.2,30.06,East,90,0.0,0.0,32,0.00,,---,0.00,VWS V14.01,2013-03-10 12:36:00,
2013-03-10 14:39:00,75.0,43.2,30.06,ENE,68,0.0,0.0,32,0.00,,---,0.00,VWS V14.01,2013-03-10 12:39:00,
2013-03-10 14:41:00,74.7,42.9,30.06,ENE,68,0.0,0.0,32,0.00,,---,0.00,VWS V14.01,2013-03-10 12:41:00,
2013-03-10 14:42:00,74.5,42.7,30.06,ESE,112,0.0,0.0,32,0.00,,---,0.00,VWS V14.01,2013-03-10 12:42:00,
2013-03-10 14:46:00,74.8,43.8,30.06,ESE,112,0.0,0.0,33,0.00,,---,0.00,VWS V14.01,2013-03-10 12:46:00,
2013-03-10 14:47:00,74.7,43.7,30.06,ESE,112,0.0,0.0,33,0.00,,---,0.00,VWS V14.01,2013-03-10 12:47:00,
2013-03-10 14:49:00,74.7,42.9,30.06,SE,135,0.0,0.0,32,0.00,,---,0.00,VWS V14.01,2013-03-10 12:49:00,
2013-03-10 14:52:00,74.5,43.5,30.06,ENE,68,0.0,0.0,33,0.00,,---,0.00,VWS V14.01,2013-03-10 12:52:00,
2013-03-10 14:53:00,74.5,43.5,30.06,ESE,112,0.0,0.0,33,0.00,,---,0.00,VWS V14.01,2013-03-10 12:53:00,
2013-03-10 14:54:00,74.5,43.5,30.06,ENE,68,0.0,0.0,33,0.00,,---,0.00,VWS V14.01,2013-03-10 12:54:00,
2013-03-10 14:55:00,74.5,43.5,30.06,ESE,112,0.0,0.0,33,0.00,,---,0.00,VWS V14.01,2013-03-10 12:55:00,
2013-03-10 15:00:00,74.1,43.2,30.06,East,90,0.0,0.0,33,0.00,,---,0.00,VWS V14.01,2013-03-10 13:00:00,
2013-03-10 15:01:00,74.3,43.4,30.06,ESE,112,0.0,0.0,33,0.00,,---,0.00,VWS V14.01,2013-03-10 13:01:00,
2013-03-10 15:02:00,74.5,43.5,30.06,ENE,68,0.0,0.0,33,0.00,,---,0.00,VWS V14.01,2013-03-10 13:02:00,
2013-03-10 15:04:00,74.7,43.7,30.06,ENE,68,0.0,0.0,33,0.00,,---,0.00,VWS V14.01,2013-03-10 13:04:00,
2013-03-10 15:07:00,74.5,43.5,30.06,ESE,112,0.0,0.0,33,0.00,,---,0.00,VWS V14.01,2013-03-10 13:07:00,
2013-03-10 15:08:00,74.5,43.5,30.06,ESE,112,0.0,0.0,33,0.00,,---,0.00,VWS V14.01,2013-03-10 13:08:00,
2013-03-10 15:12:00,74.7,43.7,30.06,SE,135,0.0,0.0,33,0.00,,---,0.00,VWS V14.01,2013-03-10 13:12:00,
2013-03-10 15:13:00,74.5,43.5,30.06,ENE,68,0.0,0.0,33,0.00,,---,0.00,VWS V14.01,2013-03-10 13:13:00,
2013-03-10 15:17:00,74.7,44.5,30.06,ENE,68,0.0,0.0,34,0.00,,---,0.00,VWS V14.01,2013-03-10 13:17:00,
2013-03-10 15:18:00,74.7,44.5,30.06,ESE,112,0.0,0.0,34,0.00,,---,0.00,VWS V14.01,2013-03-10 13:18:00,
2013-03-10 15:19:00,74.3,43.4,30.06,ESE,112,0.0,0.0,33,0.00,,---,0.00,VWS V14.01,2013-03-10 13:19:00,
2013-03-10 15:23:00,74.1,43.2,30.06,ENE,68,0.0,0.0,33,0.00,,---,0.00,VWS V14.01,2013-03-10 13:23:00,
2013-03-10 15:24:00,74.3,44.1,30.06,ESE,112,0.0,0.0,34,0.00,,---,0.00,VWS V14.01,2013-03-10 13:24:00,
2013-03-10 15:28:00,74.5,43.5,30.03,NE,45,0.0,0.0,33,0.00,,---,0.00,VWS V14.01,2013-03-10 13:28:00,
2013-03-10 15:30:00,74.1,44.0,30.03,East,90,0.0,0.0,34,0.00,,---,0.00,VWS V14.01,2013-03-10 13:30:00,
2013-03-10 15:33:00,73.9,43.0,30.03,ESE,112,0.0,0.0,33,0.00,,---,0.00,VWS V14.01,2013-03-10 13:33:00,
2013-03-10 15:34:00,73.8,42.9,30.03,ESE,112,0.0,0.0,33,0.00,,---,0.00,VWS V14.01,2013-03-10 13:34:00,
2013-03-10 15:38:00,73.4,44.1,30.03,ESE,112,0.0,0.0,35,0.00,,---,0.00,VWS V14.01,2013-03-10 13:38:00,
2013-03-10 15:39:00,73.4,43.3,30.03,ESE,112,0.0,0.0,34,0.00,,---,0.00,VWS V14.01,2013-03-10 13:39:00,
2013-03-10 15:41:00,73.2,44.7,30.06,East,90,0.0,0.0,36,0.00,,---,0.00,VWS V14.01,2013-03-10 13:41:00,
2013-03-10 15:42:00,73.4,44.1,30.06,ENE,68,0.0,0.0,35,0.00,,---,0.00,VWS V14.01,2013-03-10 13:42:00,
2013-03-10 15:45:00,73.4,44.1,30.06,East,90,0.0,0.0,35,0.00,,---,0.00,VWS V14.01,2013-03-10 13:45:00,
2013-03-10 15:46:00,73.4,44.1,30.06,ESE,112,0.0,0.0,35,0.00,,---,0.00,VWS V14.01,2013-03-10 13:46:00,
2013-03-10 15:48:00,73.4,44.1,30.06,ESE,112,0.0,0.0,35,0.00,,---,0.00,VWS V14.01,2013-03-10 13:48:00,
2013-03-10 15:50:00,73.4,44.8,30.06,ESE,112,0.0,0.0,36,0.00,,---,0.00,VWS V14.01,2013-03-10 13:50:00,
2013-03-10 15:51:00,73.4,44.1,30.06,ESE,112,0.0,0.0,35,0.00,,---,0.00,VWS V14.01,2013-03-10 13:51:00,
2013-03-10 15:56:00,73.2,44.7,30.03,ESE,112,0.0,0.0,36,0.00,,---,0.00,VWS V14.01,2013-03-10 13:56:00,
2013-03-10 15:57:00,73.2,44.7,30.03,ESE,112,0.0,0.0,36,0.00,,---,0.00,VWS V14.01,2013-03-10 13:57:00,
2013-03-10 15:58:00,73.2,45.4,30.03,ESE,112,0.0,0.0,37,0.00,,---,0.00,VWS V14.01,2013-03-10 13:58:00,
2013-03-10 16:01:00,73.4,45.6,30.03,ENE,68,0.0,0.0,37,0.00,,---,0.00,VWS V14.01,2013-03-10 14:01:00,
2013-03-10 16:03:00,73.6,45.7,30.03,ESE,112,0.0,0.0,37,0.00,,---,0.00,VWS V14.01,2013-03-10 14:03:00,
2013-03-10 16:06:00,73.2,44.7,30.03,East,90,0.0,0.0,36,0.00,,---,0.00,VWS V14.01,2013-03-10 14:06:00,
2013-03-10 16:08:00,72.9,45.1,30.03,ESE,112,0.0,0.0,37,0.00,,---,0.00,VWS V14.01,2013-03-10 14:08:00,
2013-03-10 16:11:00,72.7,44.2,30.03,ESE,112,0.0,0.0,36,0.00,,---,0.00,VWS V14.01,2013-03-10 14:11:00,
2013-03-10 16:13:00,72.5,44.1,30.03,ESE,112,0.0,0.0,36,0.00,,---,0.00,VWS V14.01,2013-03-10 14:13:00,
2013-03-10 16:14:00,72.7,44.2,30.03,ESE,112,0.0,0.0,36,0.00,,---,0.00,VWS V14.01,2013-03-10 14:14:00,
2013-03-10 16:15:00,72.5,44.8,30.03,ESE,112,0.0,0.0,37,0.00,,---,0.00,VWS V14.01,2013-03-10 14:15:00,
2013-03-10 16:17:00,72.5,45.5,30.03,East,90,0.0,0.0,38,0.00,,---,0.00,VWS V14.01,2013-03-10 14:17:00,
2013-03-10 16:19:00,72.7,44.9,30.03,ESE,112,0.0,0.0,37,0.00,,---,0.00,VWS V14.01,2013-03-10 14:19:00,
2013-03-10 16:23:00,72.5,45.5,30.03,ESE,112,0.0,0.0,38,0.00,,---,0.00,VWS V14.01,2013-03-10 14:23:00,
2013-03-10 16:24:00,72.5,45.5,30.03,ESE,112,0.0,0.0,38,0.00,,---,0.00,VWS V14.01,2013-03-10 14:24:00,
2013-03-10 16:25:00,72.7,46.3,30.03,ESE,112,0.0,0.0,39,0.00,,---,0.00,VWS V14.01,2013-03-10 14:25:00,
2013-03-10 16:28:00,72.9,46.5,30.03,ESE,112,0.0,0.0,39,0.00,,---,0.00,VWS V14.01,2013-03-10 14:28:00,
2013-03-10 16:29:00,73.0,46.0,30.03,East,90,0.0,0.0,38,0.00,,---,0.00,VWS V14.01,2013-03-10 14:29:00,
2013-03-10 16:30:00,73.0,45.2,30.03,East,90,0.0,0.0,37,0.00,,---,0.00,VWS V14.01,2013-03-10 14:30:00,
2013-03-10 16:32:00,72.5,44.8,30.03,ESE,112,0.0,0.0,37,0.00,,---,0.00,VWS V14.01,2013-03-10 14:32:00,
2013-03-10 16:34:00,72.5,44.8,30.03,East,90,0.0,0.0,37,0.00,,---,0.00,VWS V14.01,2013-03-10 14:34:00,
2013-03-10 16:37:00,72.5,44.8,30.03,ESE,112,0.0,0.0,37,0.00,,---,0.00,VWS V14.01,2013-03-10 14:37:00,
2013-03-10 16:39:00,72.7,45.6,30.03,ESE,112,0.0,0.0,38,0.00,,---,0.00,VWS V14.01,2013-03-10 14:39:00,
2013-03-10 16:42:00,72.7,46.3,30.03,ESE,112,0.0,0.0,39,0.00,,---,0.00,VWS V14.01,2013-03-10 14:42:00,
2013-03-10 16:44:00,72.7,44.9,30.03,ESE,112,0.0,0.0,37,0.00,,---,0.00,VWS V14.01,2013-03-10 14:44:00,
2013-03-10 16:46:00,72.1,44.5,30.03,ESE,112,0.0,0.0,37,0.00,,---,0.00,VWS V14.01,2013-03-10 14:46:00,
2013-03-10 16:48:00,71.8,44.8,30.03,ESE,112,0.0,0.0,38,0.00,,---,0.00,VWS V14.01,2013-03-10 14:48:00,
2013-03-10 16:49:00,71.8,44.8,30.03,East,90,0.0,0.0,38,0.00,,---,0.00,VWS V14.01,2013-03-10 14:49:00,
2013-03-10 16:52:00,71.6,45.4,30.03,ESE,112,0.0,0.0,39,0.00,,---,0.00,VWS V14.01,2013-03-10 14:52:00,
2013-03-10 16:53:00,71.8,46.2,30.03,NNE,22,0.0,0.0,40,0.00,,---,0.00,VWS V14.01,2013-03-10 14:53:00,
2013-03-10 16:54:00,71.8,45.5,30.03,ENE,68,0.0,0.0,39,0.00,,---,0.00,VWS V14.01,2013-03-10 14:54:00,
2013-03-10 16:56:00,71.8,45.5,30.03,SE,135,0.0,0.0,39,0.00,,---,0.00,VWS V14.01,2013-03-10 14:56:00,
2013-03-10 16:59:00,71.6,45.4,30.03,ENE,68,0.0,0.0,39,0.00,,---,0.00,VWS V14.01,2013-03-10 14:59:00,
2013-03-10 17:01:00,71.8,45.5,30.03,ENE,68,0.0,0.0,39,0.00,,---,0.00,VWS V14.01,2013-03-10 15:01:00,
2013-03-10 17:03:00,72.0,46.3,30.03,ESE,112,0.0,0.0,40,0.00,,---,0.00,VWS V14.01,2013-03-10 15:03:00,
2013-03-10 17:06:00,72.0,47.0,30.03,East,90,0.0,0.0,41,0.00,,---,0.00,VWS V14.01,2013-03-10 15:06:00,
2013-03-10 17:07:00,72.0,46.3,30.03,East,90,0.0,0.0,40,0.00,,---,0.00,VWS V14.01,2013-03-10 15:07:00,
2013-03-10 17:10:00,71.6,45.4,30.03,NNE,22,0.0,0.0,39,0.00,,---,0.00,VWS V14.01,2013-03-10 15:10:00,
2013-03-10 17:13:00,71.4,46.5,30.03,ESE,112,0.0,0.0,41,0.00,,---,0.00,VWS V14.01,2013-03-10 15:13:00,
2013-03-10 17:15:00,70.9,46.0,30.03,ESE,112,0.0,0.0,41,0.00,,---,0.00,VWS V14.01,2013-03-10 15:15:00,
2013-03-10 17:16:00,70.9,46.7,30.03,East,90,0.0,0.0,42,0.00,,---,0.00,VWS V14.01,2013-03-10 15:16:00,
2013-03-10 17:20:00,70.9,46.7,30.03,ENE,68,0.0,0.0,42,0.00,,---,0.00,VWS V14.01,2013-03-10 15:20:00,
2013-03-10 17:21:00,70.7,46.5,30.03,ESE,112,0.0,0.0,42,0.00,,---,0.00,VWS V14.01,2013-03-10 15:21:00,
2013-03-10 17:22:00,70.7,46.5,30.03,East,90,0.0,0.0,42,0.00,,---,0.00,VWS V14.01,2013-03-10 15:22:00,
2013-03-10 17:23:00,70.7,46.5,30.03,East,90,0.0,0.0,42,0.00,,---,0.00,VWS V14.01,2013-03-10 15:23:00,
2013-03-10 17:26:00,70.5,47.0,30.03,ESE,112,0.0,0.0,43,0.00,,---,0.00,VWS V14.01,2013-03-10 15:26:00,
2013-03-10 17:28:00,70.7,47.1,30.03,ESE,112,0.0,0.0,43,0.00,,---,0.00,VWS V14.01,2013-03-10 15:28:00,
2013-03-10 17:31:00,70.5,47.0,30.03,ESE,112,0.0,0.0,43,0.00,,---,0.00,VWS V14.01,2013-03-10 15:31:00,
2013-03-10 17:33:00,70.3,46.2,30.03,East,90,0.0,0.0,42,0.00,,---,0.00,VWS V14.01,2013-03-10 15:33:00,
2013-03-10 17:34:00,70.3,46.8,30.03,ESE,112,0.0,0.0,43,0.00,,---,0.00,VWS V14.01,2013-03-10 15:34:00,
2013-03-10 17:35:00,70.3,46.8,30.03,ESE,112,0.0,0.0,43,0.00,,---,0.00,VWS V14.01,2013-03-10 15:35:00,
2013-03-10 17:36:00,70.3,46.8,30.03,SE,135,0.0,0.0,43,0.00,,---,0.00,VWS V14.01,2013-03-10 15:36:00,
2013-03-10 17:38:00,70.3,46.8,30.03,East,90,0.0,0.0,43,0.00,,---,0.00,VWS V14.01,2013-03-10 15:38:00,
2013-03-10 17:41:00,70.2,46.6,30.03,East,90,0.0,0.0,43,0.00,,---,0.00,VWS V14.01,2013-03-10 15:41:00,
2013-03-10 17:42:00,70.2,46.6,30.03,ESE,112,0.0,0.0,43,0.00,,---,0.00,VWS V14.01,2013-03-10 15:42:00,
2013-03-10 17:43:00,70.3,46.8,30.03,ESE,112,0.0,0.0,43,0.00,,---,0.00,VWS V14.01,2013-03-10 15:43:00,
2013-03-10 17:46:00,70.2,46.6,30.03,East,90,0.0,0.0,43,0.00,,---,0.00,VWS V14.01,2013-03-10 15:46:00,
2013-03-10 17:48:00,70.2,46.6,30.03,ESE,112,0.0,0.0,43,0.00,,---,0.00,VWS V14.01,2013-03-10 15:48:00,
2013-03-10 17:51:00,70.0,46.5,30.03,East,90,0.0,0.0,43,0.00,,---,0.00,VWS V14.01,2013-03-10 15:51:00,
2013-03-10 17:54:00,69.8,46.9,30.03,ESE,112,0.0,0.0,44,0.00,,---,0.00,VWS V14.01,2013-03-10 15:54:00,
2013-03-10 17:56:00,70.0,47.1,30.03,SE,135,0.0,0.0,44,0.00,,---,0.00,VWS V14.01,2013-03-10 15:56:00,
2013-03-10 17:59:00,70.0,47.1,30.03,East,90,0.0,0.0,44,0.00,,---,0.00,VWS V14.01,2013-03-10 15:59:00,
2013-03-10 18:00:00,69.8,46.9,30.03,ESE,112,0.0,0.0,44,0.00,,---,0.00,VWS V14.01,2013-03-10 16:00:00,
2013-03-10 18:02:00,69.4,46.0,30.03,East,90,0.0,0.0,43,0.00,,---,0.00,VWS V14.01,2013-03-10 16:02:00,
2013-03-10 18:03:00,69.4,46.0,30.03,ESE,112,0.0,0.0,43,0.00,,---,0.00,VWS V14.01,2013-03-10 16:03:00,
2013-03-10 18:04:00,69.1,46.3,30.03,ESE,112,0.0,9.6,44,0.00,,---,0.00,VWS V14.01,2013-03-10 16:04:00,
2013-03-10 18:06:00,68.9,46.1,30.03,East,90,0.0,0.0,44,0.00,,---,0.00,VWS V14.01,2013-03-10 16:06:00,
2013-03-10 18:08:00,68.7,47.1,30.03,ESE,112,0.0,0.0,46,0.00,,---,0.00,VWS V14.01,2013-03-10 16:08:00,
2013-03-10 18:09:00,68.5,46.4,30.03,ESE,112,0.0,0.0,45,0.00,,---,0.00,VWS V14.01,2013-03-10 16:09:00,
2013-03-10 18:12:00,68.5,47.0,30.03,SSE,158,0.0,0.0,46,0.00,,---,0.00,VWS V14.01,2013-03-10 16:12:00,
2013-03-10 18:13:00,68.5,47.5,30.03,SSE,158,0.0,0.0,47,0.00,,---,0.00,VWS V14.01,2013-03-10 16:13:00,
2013-03-10 18:15:00,68.5,48.1,30.03,East,90,0.0,0.0,48,0.00,,---,0.00,VWS V14.01,2013-03-10 16:15:00,
2013-03-10 18:18:00,68.4,47.9,30.03,East,90,0.0,0.0,48,0.00,,---,0.00,VWS V14.01,2013-03-10 16:18:00,
2013-03-10 18:23:00,68.2,47.2,30.03,ESE,112,0.0,0.0,47,0.00,,---,0.00,VWS V14.01,2013-03-10 16:23:00,
2013-03-10 18:24:00,68.2,47.2,30.03,ESE,112,0.0,0.0,47,0.00,,---,0.00,VWS V14.01,2013-03-10 16:24:00,
2013-03-10 18:25:00,68.2,47.2,30.03,ESE,112,0.0,0.0,47,0.00,,---,0.00,VWS V14.01,2013-03-10 16:25:00,
2013-03-10 18:30:00,68.2,47.8,30.03,ESE,112,0.0,0.0,48,0.00,,---,0.00,VWS V14.01,2013-03-10 16:30:00,
2013-03-10 18:32:00,68.0,48.2,30.03,ESE,112,0.0,4.5,49,0.00,,---,0.00,VWS V14.01,2013-03-10 16:32:00,
2013-03-10 18:36:00,68.0,48.2,30.03,ESE,112,0.0,0.0,49,0.00,,---,0.00,VWS V14.01,2013-03-10 16:36:00,
2013-03-10 18:37:00,67.8,47.4,30.03,ENE,68,0.0,0.0,48,0.00,,---,0.00,VWS V14.01,2013-03-10 16:37:00,
2013-03-10 18:41:00,67.8,47.4,30.06,ESE,112,0.0,0.0,48,0.00,,---,0.00,VWS V14.01,2013-03-10 16:41:00,
2013-03-10 18:43:00,67.8,47.4,30.06,ESE,112,0.0,0.0,48,0.00,,---,0.00,VWS V14.01,2013-03-10 16:43:00,
2013-03-10 18:44:00,67.8,47.4,30.06,ESE,112,0.0,0.0,48,0.00,,---,0.00,VWS V14.01,2013-03-10 16:44:00,
2013-03-10 18:46:00,67.8,47.4,30.06,East,90,0.0,0.0,48,0.00,,---,0.00,VWS V14.01,2013-03-10 16:46:00,
2013-03-10 18:48:00,67.8,47.4,30.06,ENE,68,0.0,0.0,48,0.00,,---,0.00,VWS V14.01,2013-03-10 16:48:00,
2013-03-10 18:51:00,67.6,47.3,30.06,ENE,68,0.0,0.0,48,0.00,,---,0.00,VWS V14.01,2013-03-10 16:51:00,
2013-03-10 18:52:00,67.6,47.3,30.06,ESE,112,0.0,0.0,48,0.00,,---,0.00,VWS V14.01,2013-03-10 16:52:00,
2013-03-10 18:55:00,67.6,47.8,30.06,East,90,0.0,0.0,49,0.00,,---,0.00,VWS V14.01,2013-03-10 16:55:00,
2013-03-10 18:56:00,67.6,47.8,30.03,ENE,68,0.0,0.0,49,0.00,,---,0.00,VWS V14.01,2013-03-10 16:56:00,
2013-03-10 18:58:00,67.6,48.4,30.03,ESE,112,0.0,0.0,50,0.00,,---,0.00,VWS V14.01,2013-03-10 16:58:00,
2013-03-10 19:01:00,67.6,48.4,30.03,East,90,0.0,0.0,50,0.00,,---,0.00,VWS V14.01,2013-03-10 17:01:00,
2013-03-10 19:03:00,67.5,48.2,30.03,ESE,112,0.0,0.0,50,0.00,,---,0.00,VWS V14.01,2013-03-10 17:03:00,
2013-03-10 19:05:00,67.5,48.2,30.03,ESE,112,0.0,0.0,50,0.00,,---,0.00,VWS V14.01,2013-03-10 17:05:00,
2013-03-10 19:07:00,67.5,48.2,30.03,ESE,112,0.0,0.0,50,0.00,,---,0.00,VWS V14.01,2013-03-10 17:07:00,
2013-03-10 19:09:00,67.5,48.7,30.03,ENE,68,0.0,0.0,51,0.00,,---,0.00,VWS V14.01,2013-03-10 17:09:00,
2013-03-10 19:13:00,67.5,48.7,30.03,NNE,22,0.0,0.0,51,0.00,,---,0.00,VWS V14.01,2013-03-10 17:13:00,
2013-03-10 19:14:00,67.5,49.2,30.03,ESE,112,0.0,0.0,52,0.00,,---,0.00,VWS V14.01,2013-03-10 17:14:00,
2013-03-10 19:15:00,67.5,49.2,30.03,ENE,68,0.0,0.0,52,0.00,,---,0.00,VWS V14.01,2013-03-10 17:15:00,
2013-03-10 19:18:00,67.5,49.2,30.03,East,90,0.0,0.0,52,0.00,,---,0.00,VWS V14.01,2013-03-10 17:18:00,
2013-03-10 19:20:00,67.5,49.2,30.03,East,90,0.0,0.0,52,0.00,,---,0.00,VWS V14.01,2013-03-10 17:20:00,
2013-03-10 19:21:00,67.5,49.2,30.03,ESE,112,0.0,0.0,52,0.00,,---,0.00,VWS V14.01,2013-03-10 17:21:00,
2013-03-10 19:23:00,67.5,49.8,30.03,ESE,112,0.0,0.0,53,0.00,,---,0.00,VWS V14.01,2013-03-10 17:23:00,
2013-03-10 19:26:00,67.5,50.2,30.03,East,90,0.0,0.0,54,0.00,,---,0.00,VWS V14.01,2013-03-10 17:26:00,
2013-03-10 19:28:00,67.5,50.2,30.03,East,90,0.0,0.0,54,0.00,,---,0.00,VWS V14.01,2013-03-10 17:28:00,
2013-03-10 19:29:00,67.5,50.2,30.03,ENE,68,0.0,0.0,54,0.00,,---,0.00,VWS V14.01,2013-03-10 17:29:00,
2013-03-10 19:32:00,67.5,50.2,30.03,ENE,68,0.0,0.0,54,0.00,,---,0.00,VWS V14.01,2013-03-10 17:32:00,
2013-03-10 19:34:00,67.5,50.2,30.03,ESE,112,0.0,0.0,54,0.00,,---,0.00,VWS V14.01,2013-03-10 17:34:00,
2013-03-10 19:37:00,67.5,50.2,30.03,ESE,112,0.0,0.0,54,0.00,,---,0.00,VWS V14.01,2013-03-10 17:37:00,
2013-03-10 19:41:00,67.5,51.2,30.03,ESE,112,0.0,0.0,56,0.00,,---,0.00,VWS V14.01,2013-03-10 17:41:00,
2013-03-10 19:44:00,67.5,51.2,30.03,ENE,68,0.0,0.0,56,0.00,,---,0.00,VWS V14.01,2013-03-10 17:44:00,
2013-03-10 19:46:00,67.5,51.2,30.03,ESE,112,0.0,0.0,56,0.00,,---,0.00,VWS V14.01,2013-03-10 17:46:00,
2013-03-10 19:49:00,67.5,51.2,30.03,ESE,112,0.0,0.0,56,0.00,,---,0.00,VWS V14.01,2013-03-10 17:49:00,
2013-03-10 19:51:00,67.3,51.1,30.03,ESE,112,0.0,0.0,56,0.00,,---,0.00,VWS V14.01,2013-03-10 17:51:00,
2013-03-10 19:52:00,67.5,51.2,30.03,ENE,68,0.0,0.0,56,0.00,,---,0.00,VWS V14.01,2013-03-10 17:52:00,
2013-03-10 19:54:00,67.5,51.7,30.03,East,90,0.0,0.0,57,0.00,,---,0.00,VWS V14.01,2013-03-10 17:54:00,
2013-03-10 19:55:00,67.5,52.2,30.03,ESE,112,0.0,0.0,58,0.00,,---,0.00,VWS V14.01,2013-03-10 17:55:00,
2013-03-10 19:56:00,67.5,52.2,30.03,ESE,112,0.0,0.0,58,0.00,,---,0.00,VWS V14.01,2013-03-10 17:56:00,
2013-03-10 20:01:00,67.5,52.7,30.03,ESE,112,0.0,0.0,59,0.00,,---,0.00,VWS V14.01,2013-03-10 18:01:00,
2013-03-10 20:03:00,67.5,52.7,30.03,ENE,68,2.9,2.9,59,0.00,,---,0.00,VWS V14.01,2013-03-10 18:03:00,
2013-03-10 20:05:00,67.5,52.7,30.03,East,90,7.6,8.1,59,0.00,,---,0.00,VWS V14.01,2013-03-10 18:05:00,
2013-03-10 20:08:00,67.5,53.1,30.03,ESE,112,0.0,0.0,60,0.00,,---,0.00,VWS V14.01,2013-03-10 18:08:00,
2013-03-10 20:10:00,67.5,53.1,30.03,ESE,112,0.0,0.0,60,0.00,,---,0.00,VWS V14.01,2013-03-10 18:10:00,
2013-03-10 20:11:00,67.5,53.1,30.03,East,90,0.0,0.0,60,0.00,,---,0.00,VWS V14.01,2013-03-10 18:11:00,
2013-03-10 20:12:00,67.5,53.1,30.03,SE,135,0.0,0.0,60,0.00,,---,0.00,VWS V14.01,2013-03-10 18:12:00,
2013-03-10 20:15:00,67.5,54.0,30.03,East,90,0.0,0.0,62,0.00,,---,0.00,VWS V14.01,2013-03-10 18:15:00,
2013-03-10 20:17:00,67.5,54.4,30.03,East,90,0.0,0.0,63,0.00,,---,0.00,VWS V14.01,2013-03-10 18:17:00,
2013-03-10 20:22:00,67.5,54.9,30.03,ENE,68,0.0,0.0,64,0.00,,---,0.00,VWS V14.01,2013-03-10 18:22:00,
2013-03-10 20:23:00,67.5,54.9,30.03,ESE,112,0.0,0.0,64,0.00,,---,0.00,VWS V14.01,2013-03-10 18:23:00,
2013-03-10 20:24:00,67.5,54.9,30.03,ESE,112,0.0,0.0,64,0.00,,---,0.00,VWS V14.01,2013-03-10 18:24:00,
2013-03-10 20:29:00,67.5,55.7,30.06,ENE,68,0.0,0.0,66,0.00,,---,0.00,VWS V14.01,2013-03-10 18:29:00,
2013-03-10 20:30:00,67.5,55.7,30.06,East,90,0.0,0.0,66,0.00,,---,0.00,VWS V14.01,2013-03-10 18:30:00,
2013-03-10 20:31:00,67.5,55.7,30.06,ESE,112,10.7,10.7,66,0.00,,---,0.00,VWS V14.01,2013-03-10 18:31:00,
2013-03-10 20:32:00,67.5,55.7,30.06,East,90,0.9,10.7,66,0.00,,---,0.00,VWS V14.01,2013-03-10 18:32:00,
2013-03-10 20:36:00,67.5,55.3,30.06,ESE,112,2.0,8.7,65,0.00,,---,0.00,VWS V14.01,2013-03-10 18:36:00,
2013-03-10 20:37:00,67.5,55.7,30.06,East,90,6.3,6.5,66,0.00,,---,0.00,VWS V14.01,2013-03-10 18:37:00,
2013-03-10 20:39:00,67.5,55.7,30.06,East,90,6.5,8.1,66,0.00,,---,0.00,VWS V14.01,2013-03-10 18:39:00,
2013-03-10 20:41:00,67.5,55.3,30.06,ESE,112,6.3,7.4,65,0.00,,---,0.00,VWS V14.01,2013-03-10 18:41:00,
2013-03-10 20:43:00,67.5,55.3,30.06,ESE,112,0.0,0.0,65,0.00,,---,0.00,VWS V14.01,2013-03-10 18:43:00,
2013-03-10 20:44:00,67.5,55.3,30.06,ESE,112,0.0,0.0,65,0.00,,---,0.00,VWS V14.01,2013-03-10 18:44:00,
2013-03-10 20:46:00,67.5,55.3,30.06,ESE,112,0.0,0.0,65,0.00,,---,0.00,VWS V14.01,2013-03-10 18:46:00,
2013-03-10 20:50:00,67.5,55.3,30.06,ESE,112,0.0,0.0,65,0.00,,---,0.00,VWS V14.01,2013-03-10 18:50:00,
2013-03-10 20:51:00,67.5,55.3,30.06,East,90,0.0,0.0,65,0.00,,---,0.00,VWS V14.01,2013-03-10 18:51:00,
2013-03-10 20:52:00,67.5,55.3,30.06,ESE,112,0.0,7.4,65,0.00,,---,0.00,VWS V14.01,2013-03-10 18:52:00,
2013-03-10 20:57:00,67.5,55.7,30.06,East,90,6.9,7.8,66,0.00,,---,0.00,VWS V14.01,2013-03-10 18:57:00,
2013-03-10 20:58:00,67.5,55.7,30.06,East,90,0.0,7.4,66,0.00,,---,0.00,VWS V14.01,2013-03-10 18:58:00,
2013-03-10 21:03:00,67.5,55.7,30.06,East,90,0.0,0.0,66,0.00,,---,0.00,VWS V14.01,2013-03-10 19:03:00,
2013-03-10 21:04:00,67.5,55.7,30.06,ESE,112,0.0,0.0,66,0.00,,---,0.00,VWS V14.01,2013-03-10 19:04:00,
2013-03-10 21:05:00,67.5,55.7,30.06,East,90,0.0,0.0,66,0.00,,---,0.00,VWS V14.01,2013-03-10 19:05:00,
2013-03-10 21:08:00,67.5,55.7,30.06,East,90,0.0,0.0,66,0.00,,---,0.00,VWS V14.01,2013-03-10 19:08:00,
2013-03-10 21:10:00,67.5,56.1,30.06,East,90,0.0,0.0,67,0.00,,---,0.00,VWS V14.01,2013-03-10 19:10:00,
2013-03-10 21:12:00,67.5,56.1,30.06,ESE,112,0.0,0.0,67,0.00,,---,0.00,VWS V14.01,2013-03-10 19:12:00,
2013-03-10 21:13:00,67.5,56.5,30.06,East,90,0.0,0.0,68,0.00,,---,0.00,VWS V14.01,2013-03-10 19:13:00,
2013-03-10 21:18:00,67.5,56.5,30.06,ESE,112,0.0,0.0,68,0.00,,---,0.00,VWS V14.01,2013-03-10 19:18:00,
2013-03-10 21:19:00,67.5,57.0,30.06,ENE,68,0.0,0.0,69,0.00,,---,0.00,VWS V14.01,2013-03-10 19:19:00,
2013-03-10 21:20:00,67.5,57.0,30.06,ESE,112,0.0,0.0,69,0.00,,---,0.00,VWS V14.01,2013-03-10 19:20:00,
2013-03-10 21:25:00,67.5,56.5,30.06,East,90,6.5,6.5,68,0.00,,---,0.00,VWS V14.01,2013-03-10 19:25:00,
2013-03-10 21:26:00,67.5,57.0,30.06,ESE,112,6.3,7.8,69,0.00,,---,0.00,VWS V14.01,2013-03-10 19:26:00,
2013-03-10 21:27:00,67.5,57.0,30.06,ESE,112,6.0,6.9,69,0.00,,---,0.00,VWS V14.01,2013-03-10 19:27:00,
2013-03-10 21:30:00,67.5,56.5,30.06,ESE,112,0.0,8.5,68,0.00,,---,0.00,VWS V14.01,2013-03-10 19:30:00,
2013-03-10 21:32:00,67.6,57.1,30.06,ESE,112,5.4,7.6,69,0.00,,---,0.00,VWS V14.01,2013-03-10 19:32:00,
2013-03-10 21:35:00,67.6,57.5,30.06,ESE,112,0.0,7.2,70,0.00,,---,0.00,VWS V14.01,2013-03-10 19:35:00,
2013-03-10 21:39:00,67.6,57.5,30.06,East,90,3.1,5.4,70,0.00,,---,0.00,VWS V14.01,2013-03-10 19:39:00,
2013-03-10 21:40:00,67.6,57.5,30.06,ESE,112,0.0,6.9,70,0.00,,---,0.00,VWS V14.01,2013-03-10 19:40:00,
2013-03-10 21:42:00,67.5,57.3,30.06,ESE,112,8.7,8.7,70,0.00,,---,0.00,VWS V14.01,2013-03-10 19:42:00,
2013-03-10 21:47:00,67.5,57.3,30.06,East,90,0.0,0.0,70,0.00,,---,0.00,VWS V14.01,2013-03-10 19:47:00,
2013-03-10 21:48:00,67.5,57.3,30.06,ESE,112,0.0,0.0,70,0.00,,---,0.00,VWS V14.01,2013-03-10 19:48:00,
2013-03-10 21:50:00,67.5,57.0,30.06,East,90,0.0,0.0,69,0.00,,---,0.00,VWS V14.01,2013-03-10 19:50:00,
2013-03-10 21:53:00,67.5,57.3,30.06,ESE,112,0.0,0.0,70,0.00,,---,0.00,VWS V14.01,2013-03-10 19:53:00,
2013-03-10 21:54:00,67.5,57.0,30.06,ESE,112,0.0,0.0,69,0.00,,---,0.00,VWS V14.01,2013-03-10 19:54:00,
2013-03-10 21:55:00,67.5,57.0,30.06,East,90,0.0,0.0,69,0.00,,---,0.00,VWS V14.01,2013-03-10 19:55:00,
2013-03-10 22:00:00,67.5,57.0,30.06,East,90,0.0,0.0,69,0.00,,---,0.00,VWS V14.01,2013-03-10 20:00:00,
2013-03-10 22:01:00,67.5,57.0,30.06,NNE,22,0.0,0.0,69,0.00,,---,0.00,VWS V14.01,2013-03-10 20:01:00,
2013-03-10 22:03:00,67.6,57.1,30.06,ENE,68,0.0,0.0,69,0.00,,---,0.00,VWS V14.01,2013-03-10 20:03:00,
2013-03-10 22:07:00,67.6,57.5,30.06,ESE,112,0.0,0.0,70,0.00,,---,0.00,VWS V14.01,2013-03-10 20:07:00,
2013-03-10 22:08:00,67.6,57.1,30.06,ENE,68,0.0,0.0,69,0.00,,---,0.00,VWS V14.01,2013-03-10 20:08:00,
2013-03-10 22:10:00,67.5,57.0,30.06,ESE,112,0.0,0.0,69,0.00,,---,0.00,VWS V14.01,2013-03-10 20:10:00,
2013-03-10 22:14:00,67.6,56.7,30.06,ENE,68,0.0,0.0,68,0.00,,---,0.00,VWS V14.01,2013-03-10 20:14:00,
2013-03-10 22:15:00,67.6,56.7,30.06,ESE,112,0.0,0.0,68,0.00,,---,0.00,VWS V14.01,2013-03-10 20:15:00,
2013-03-10 22:18:00,67.6,57.1,30.06,ESE,112,0.0,0.0,69,0.00,,---,0.00,VWS V14.01,2013-03-10 20:18:00,
2013-03-10 22:20:00,67.6,57.1,30.06,ESE,112,0.0,0.0,69,0.00,,---,0.00,VWS V14.01,2013-03-10 20:20:00,
2013-03-10 22:23:00,67.6,56.7,30.06,ESE,112,0.0,0.0,68,0.00,,---,0.00,VWS V14.01,2013-03-10 20:23:00,
2013-03-10 22:27:00,67.5,56.1,30.06,ESE,112,0.0,0.0,67,0.00,,---,0.00,VWS V14.01,2013-03-10 20:27:00,
2013-03-10 22:28:00,67.5,56.1,30.06,ENE,68,0.0,0.0,67,0.00,,---,0.00,VWS V14.01,2013-03-10 20:28:00,
2013-03-10 22:33:00,67.6,56.7,30.06,ESE,112,0.0,0.0,68,0.00,,---,0.00,VWS V14.01,2013-03-10 20:33:00,
2013-03-10 22:34:00,67.6,56.7,30.06,East,90,4.3,4.3,68,0.00,,---,0.00,VWS V14.01,2013-03-10 20:34:00,
2013-03-10 22:36:00,67.6,57.1,30.06,ENE,68,0.0,0.0,69,0.00,,---,0.00,VWS V14.01,2013-03-10 20:36:00,
2013-03-10 22:39:00,67.6,57.1,30.06,ESE,112,0.0,8.1,69,0.00,,---,0.00,VWS V14.01,2013-03-10 20:39:00,
2013-03-10 22:41:00,67.6,57.1,30.06,ESE,112,0.0,0.0,69,0.00,,---,0.00,VWS V14.01,2013-03-10 20:41:00,
2013-03-10 22:43:00,67.6,56.7,30.06,East,90,0.0,7.4,68,0.00,,---,0.00,VWS V14.01,2013-03-10 20:43:00,
2013-03-10 22:46:00,67.6,56.7,30.06,ESE,112,6.0,8.1,68,0.00,,---,0.00,VWS V14.01,2013-03-10 20:46:00,
2013-03-10 22:48:00,67.6,56.7,30.06,East,90,0.0,3.4,68,0.00,,---,0.00,VWS V14.01,2013-03-10 20:48:00,
2013-03-10 22:50:00,67.6,56.7,30.06,ESE,112,5.4,5.8,68,0.00,,---,0.00,VWS V14.01,2013-03-10 20:50:00,
2013-03-10 22:51:00,67.6,56.7,30.06,ESE,112,2.7,6.0,68,0.00,,---,0.00,VWS V14.01,2013-03-10 20:51:00,
2013-03-10 22:53:00,67.6,57.1,30.06,ESE,112,0.0,6.0,69,0.00,,---,0.00,VWS V14.01,2013-03-10 20:53:00,
2013-03-10 22:55:00,67.6,57.1,30.06,SE,135,3.4,5.6,69,0.00,,---,0.00,VWS V14.01,2013-03-10 20:55:00,
2013-03-10 22:58:00,67.6,57.1,30.03,ESE,112,2.5,7.6,69,0.00,,---,0.00,VWS V14.01,2013-03-10 20:58:00,
2013-03-10 22:59:00,67.6,57.1,30.03,ENE,68,6.0,6.0,69,0.00,,---,0.00,VWS V14.01,2013-03-10 20:59:00,
2013-03-10 23:02:00,67.6,57.5,30.03,ESE,112,0.0,0.0,70,0.00,,---,0.00,VWS V14.01,2013-03-10 21:02:00,
2013-03-10 23:03:00,67.5,57.3,30.03,ENE,68,0.0,0.0,70,0.00,,---,0.00,VWS V14.01,2013-03-10 21:03:00,
2013-03-10 23:04:00,67.5,57.3,30.03,ESE,112,4.3,5.8,70,0.00,,---,0.00,VWS V14.01,2013-03-10 21:04:00,
2013-03-10 23:08:00,67.3,56.8,30.03,ESE,112,0.0,3.4,69,0.00,,---,0.00,VWS V14.01,2013-03-10 21:08:00,
2013-03-10 23:10:00,67.5,57.3,30.03,ESE,112,0.0,4.9,70,0.00,,---,0.00,VWS V14.01,2013-03-10 21:10:00,
2013-03-10 23:11:00,67.5,57.3,30.03,ESE,112,5.6,5.6,70,0.00,,---,0.00,VWS V14.01,2013-03-10 21:11:00,
2013-03-10 23:14:00,67.5,57.7,30.03,ENE,68,0.0,0.9,71,0.00,,---,0.00,VWS V14.01,2013-03-10 21:14:00,
2013-03-10 23:16:00,67.3,57.6,30.03,ESE,112,1.1,7.2,71,0.00,,---,0.00,VWS V14.01,2013-03-10 21:16:00,
2013-03-10 23:19:00,67.5,58.1,30.03,ESE,112,4.3,6.0,72,0.00,,---,0.00,VWS V14.01,2013-03-10 21:19:00,
2013-03-10 23:20:00,67.5,58.1,30.03,ESE,112,0.0,4.3,72,0.00,,---,0.00,VWS V14.01,2013-03-10 21:20:00,
2013-03-10 23:22:00,67.5,58.5,30.03,ESE,112,6.3,7.4,73,0.00,,---,0.00,VWS V14.01,2013-03-10 21:22:00,
2013-03-10 23:23:00,67.5,58.1,30.03,ENE,68,0.0,6.3,72,0.00,,---,0.00,VWS V14.01,2013-03-10 21:23:00,
2013-03-10 23:26:00,67.3,58.0,30.03,East,90,8.7,8.7,72,0.00,,---,0.00,VWS V14.01,2013-03-10 21:26:00,
2013-03-10 23:27:00,67.3,58.0,30.03,ESE,112,0.0,8.7,72,0.00,,---,0.00,VWS V14.01,2013-03-10 21:27:00,
2013-03-10 23:31:00,67.3,57.6,30.03,ESE,112,0.0,0.0,71,0.00,,---,0.00,VWS V14.01,2013-03-10 21:31:00,
2013-03-10 23:32:00,67.3,57.6,30.03,ESE,112,0.0,0.0,71,0.00,,---,0.00,VWS V14.01,2013-03-10 21:32:00,
2013-03-10 23:33:00,67.3,57.6,30.03,East,90,2.5,3.6,71,0.00,,---,0.00,VWS V14.01,2013-03-10 21:33:00,
2013-03-10 23:38:00,67.3,58.0,30.03,ESE,112,0.0,7.4,72,0.00,,---,0.00,VWS V14.01,2013-03-10 21:38:00,
2013-03-10 23:39:00,67.1,57.8,30.03,East,90,0.0,0.0,72,0.00,,---,0.00,VWS V14.01,2013-03-10 21:39:00,
2013-03-10 23:42:00,67.1,57.4,30.03,ESE,112,0.0,0.0,71,0.00,,---,0.00,VWS V14.01,2013-03-10 21:42:00,
2013-03-10 23:46:00,67.1,57.4,30.03,ESE,112,6.3,7.4,71,0.00,,---,0.00,VWS V14.01,2013-03-10 21:46:00,
2013-03-10 23:48:00,67.1,57.4,30.03,ESE,112,0.0,0.0,71,0.00,,---,0.00,VWS V14.01,2013-03-10 21:48:00,
2013-03-10 23:52:00,67.1,57.8,30.03,ENE,68,0.0,7.4,72,0.00,,---,0.00,VWS V14.01,2013-03-10 21:52:00,
2013-03-10 23:53:00,67.1,57.8,30.03,ENE,68,0.0,0.0,72,0.00,,---,0.00,VWS V14.01,2013-03-10 21:53:00,
2013-03-10 23:54:00,67.1,58.2,30.03,East,90,0.0,0.0,73,0.00,,---,0.00,VWS V14.01,2013-03-10 21:54:00,
2013-03-10 23:58:00,67.1,58.2,30.03,ENE,68,4.3,4.3,73,0.00,,---,0.00,VWS V14.01,2013-03-10 21:58:00,
2013-03-10 23:59:00,67.1,57.8,30.03,ESE,112,0.0,4.3,72,0.00,,---,0.00,VWS V14.01,2013-03-10 21:59:00,